KC8P Weather Reports


time (UTC)temp
C
wind
direction
speed
KPH
gust
KPH
rain 1hr
cm
rain 24hr
cm
rain mn
cm
humidity
%
barometer
mb
20260509012032 13 196 0.0 3.2 0.00 0.00 0.00 68 1006.9
20260509011927 13 197 1.6 3.2 0.00 0.00 0.00 68 1006.6
20260509011820 13 177 0.0 3.2 0.00 0.00 0.00 67 1006.9
20260509011717 13 180 3.2 3.2 0.00 0.00 0.00 67 1006.6
20260509011616 13 188 1.6 3.2 0.00 0.00 0.00 67 1006.6
20260509011512 13 209 1.6 3.2 0.00 0.00 0.00 68 1006.9
20260509011406 13 211 1.6 3.2 0.00 0.00 0.00 67 1006.6
20260509011300 13 203 0.0 3.2 0.00 0.00 0.00 67 1006.9
20260509011223 13 203 0.0 3.2 0.00 0.00 0.00 67 1006.9
20260509011155 13 203 0.0 3.2 0.00 0.00 0.00 67 1006.9
20260509011049 13 211 3.2 3.2 0.00 0.00 0.00 67 1006.9
20260509010944 13 203 1.6 3.2 0.00 0.00 0.00 67 1006.9
20260509010839 13 189 1.6 3.2 0.00 0.00 0.00 67 1006.6
20260509010733 13 201 0.0 0.0 0.00 0.00 0.00 67 1006.9
20260509010717 13 193 0.0 0.0 0.00 0.00 0.00 67 1006.9
20260509010628 13 178 0.0 0.0 0.00 0.00 0.00 67 1006.9
20260509010522 13 177 0.0 0.0 0.00 0.00 0.00 67 1006.9
20260509010416 13 182 0.0 0.0 0.00 0.00 0.00 67 1006.6
20260509010310 13 191 0.0 0.0 0.00 0.00 0.00 66 1006.9
20260509010205 13 208 0.0 0.0 0.00 0.00 0.00 66 1006.9
20260509010104 13 209 0.0 1.6 0.00 0.00 0.00 66 1006.9
20260509005954 13 208 0.0 1.6 0.00 0.00 0.00 66 1006.9
20260509005849 13 205 0.0 1.6 0.00 0.00 0.00 66 1006.6
20260509005743 13 208 0.0 3.2 0.00 0.00 0.00 66 1006.9
20260509005706 13 208 0.0 3.2 0.00 0.00 0.00 66 1006.9
20260509005638 13 208 0.0 4.8 0.00 0.00 0.00 66 1006.6
20260509005532 14 208 0.0 6.4 0.00 0.00 0.00 66 1006.9
20260509005427 14 208 0.0 6.4 0.00 0.00 0.00 66 1006.9
20260509005322 14 201 0.0 6.4 0.00 0.00 0.00 65 1006.9
20260509005216 14 206 0.0 6.4 0.00 0.00 0.00 65 1006.6
20260509005200 14 206 0.0 6.4 0.00 0.00 0.00 65 1006.6
20260509005122 14 206 1.6 6.4 0.00 0.00 0.00 65 1006.6
20260509005004 14 189 1.6 6.4 0.00 0.00 0.00 65 1006.6
20260509004850 14 182 0.0 9.7 0.00 0.00 0.00 65 1006.9
20260509004744 14 211 3.2 9.7 0.00 0.00 0.00 65 1006.6
20260509004656 14 205 4.8 9.7 0.00 0.00 0.00 64 1006.6
20260509004639 14 207 3.2 9.7 0.00 0.00 0.00 65 1006.9
20260509004533 14 186 3.2 9.7 0.00 0.00 0.00 65 1006.6
20260509004429 14 196 3.2 9.7 0.00 0.00 0.00 65 1006.9
20260509004324 14 172 1.6 9.7 0.00 0.00 0.00 65 1006.6
20260509004219 14 199 1.6 9.7 0.00 0.00 0.00 64 1006.9
20260509004153 14 189 3.2 9.7 0.00 0.00 0.00 64 1006.9
20260509004113 14 217 1.6 9.7 0.00 0.00 0.00 64 1006.6
20260509004007 14 193 3.2 9.7 0.00 0.00 0.00 64 1006.6
20260509003903 14 185 6.4 9.7 0.00 0.00 0.00 64 1006.6
20260509003758 14 217 4.8 9.7 0.00 0.00 0.00 64 1006.6
20260509003651 14 251 3.2 9.7 0.00 0.00 0.00 63 1006.6
20260509003546 15 218 3.2 9.7 0.00 0.00 0.00 63 1006.6
20260509003440 15 211 1.6 9.7 0.00 0.00 0.00 63 1006.6
20260509003335 15 187 6.4 9.7 0.00 0.00 0.00 63 1006.6
20260509003229 15 171 6.4 9.7 0.00 0.00 0.00 63 1006.6
20260509003141 15 215 4.8 9.7 0.00 0.00 0.00 63 1006.6
20260509003125 15 197 6.4 9.7 0.00 0.00 0.00 62 1006.6
20260509003018 15 195 4.8 6.4 0.00 0.00 0.00 63 1006.6
20260509002913 15 196 3.2 3.2 0.00 0.00 0.00 64 1006.6
20260509002807 15 195 1.6 1.6 0.00 0.00 0.00 64 1006.1
20260509002702 15 162 0.0 1.6 0.00 0.00 0.00 63 1006.1
20260509002635 15 145 0.0 1.6 0.00 0.00 0.00 63 1006.6
20260509002556 15 144 0.0 1.6 0.00 0.00 0.00 63 1006.6
20260509002450 15 146 0.0 1.6 0.00 0.00 0.00 63 1006.6
20260509002346 15 147 0.0 1.6 0.00 0.00 0.00 63 1006.6
20260509002240 15 144 1.6 1.6 0.00 0.00 0.00 62 1006.6
20260509002134 15 167 0.0 3.2 0.00 0.00 0.00 62 1006.6
20260509002029 15 167 0.0 3.2 0.00 0.00 0.00 61 1006.6
20260509001923 15 168 0.0 3.2 0.00 0.00 0.00 61 1006.6
20260509001818 15 167 0.0 3.2 0.00 0.00 0.00 61 1006.1
20260509001712 15 167 0.0 3.2 0.00 0.00 0.00 61 1006.6
20260509001624 15 167 0.0 3.2 0.00 0.00 0.00 60 1006.1
20260509001606 15 167 0.0 3.2 0.00 0.00 0.00 61 1006.1
20260509001502 15 167 1.6 3.2 0.00 0.00 0.00 60 1006.6
20260509001356 15 138 1.6 4.8 0.00 0.00 0.00 60 1006.6
20260509001250 16 140 1.6 4.8 0.00 0.00 0.00 57 1006.1
20260509001144 16 115 3.2 4.8 0.00 0.00 0.00 54 1006.1
20260509001118 16 106 1.6 4.8 0.00 0.00 0.00 54 1006.1
20260509001039 16 114 1.6 4.8 0.00 0.00 0.00 46 1006.1
20260509000934 16 114 0.0 4.8 0.00 0.00 0.00 45 1006.1
20260509000828 16 110 1.6 4.8 0.00 0.00 0.00 44 1006.6
20260509000722 16 321 0.0 4.8 0.00 0.00 0.00 44 1006.6
20260509000617 16 291 1.6 4.8 0.00 0.00 0.00 43 1006.6
20260509000511 16 229 3.2 4.8 0.00 0.00 0.00 42 1006.6
20260509000406 16 257 4.8 6.4 0.00 0.00 0.00 41 1006.1
20260509000303 16 150 1.6 6.4 0.00 0.00 0.00 50 1006.6
20260509000155 16 148 1.6 6.4 0.00 0.00 0.00 48 1006.1
20260509000107 16 202 4.8 6.4 0.00 0.00 0.00 46 1006.6
20260508235944 16 188 4.8 6.4 0.00 0.00 0.00 38 1006.6
20260508235838 16 173 1.6 6.4 0.00 0.00 0.00 38 1006.1
20260508235731 16 213 3.2 6.4 0.00 0.00 0.00 38 1006.1
20260508235626 16 232 0.0 6.4 0.00 0.00 0.00 38 1006.6
20260508235600 16 245 0.0 6.4 0.00 0.00 0.00 38 1006.6
20260508235520 16 208 6.4 6.4 0.00 0.00 0.00 38 1006.1
20260508235415 16 204 3.2 6.4 0.00 0.00 0.00 38 1006.6
20260508235309 16 342 1.6 6.4 0.00 0.00 0.00 38 1006.6
20260508235204 16 1 3.2 6.4 0.00 0.00 0.00 39 1006.1
20260508235110 16 226 3.2 6.4 0.00 0.00 0.00 38 1006.6
20260508234951 16 203 4.8 6.4 0.00 0.00 0.00 38 1006.6
20260508234845 16 253 3.2 4.8 0.00 0.00 0.00 38 1006.1
20260508234740 16 170 3.2 4.8 0.00 0.00 0.00 37 1006.6
20260508234634 16 329 1.6 3.2 0.00 0.00 0.00 38 1006.1
20260508234547 16 231 1.6 3.2 0.00 0.00 0.00 38 1006.1
20260508234529 16 183 0.0 4.8 0.00 0.00 0.00 38 1006.6
20260508234423 16 262 1.6 4.8 0.00 0.00 0.00 38 1006.6
20260508234318 16 350 0.0 4.8 0.00 0.00 0.00 39 1006.1
20260508234212 16 349 0.0 4.8 0.00 0.00 0.00 38 1006.6
20260508234106 16 329 1.6 4.8 0.00 0.00 0.00 38 1006.6
20260508234040 16 317 1.6 4.8 0.00 0.00 0.00 37 1006.1
20260508234001 16 300 0.0 4.8 0.00 0.00 0.00 38 1006.1
20260508233855 16 254 0.0 4.8 0.00 0.00 0.00 38 1006.6
20260508233751 16 255 0.0 4.8 0.00 0.00 0.00 37 1006.1
20260508233645 17 255 1.6 4.8 0.00 0.00 0.00 37 1006.6
20260508233539 17 191 1.6 4.8 0.00 0.00 0.00 37 1006.1
20260508233436 17 343 0.0 4.8 0.00 0.00 0.00 37 1006.1
20260508233330 17 342 3.2 4.8 0.00 0.00 0.00 37 1006.6
20260508233224 17 322 1.6 4.8 0.00 0.00 0.00 37 1006.6
20260508233119 17 313 0.0 4.8 0.00 0.00 0.00 36 1006.6
20260508233031 17 309 0.0 4.8 0.00 0.00 0.00 37 1006.6
20260508233014 17 306 1.6 4.8 0.00 0.00 0.00 36 1006.6
20260508232909 17 170 1.6 4.8 0.00 0.00 0.00 36 1006.6
20260508232803 17 262 1.6 3.2 0.00 0.00 0.00 36 1006.6
20260508232657 17 268 0.0 3.2 0.00 0.00 0.00 35 1006.6
20260508232551 17 359 0.0 3.2 0.00 0.00 0.00 36 1006.6
20260508232524 17 359 0.0 3.2 0.00 0.00 0.00 36 1006.1
20260508232446 17 346 0.0 3.2 0.00 0.00 0.00 36 1006.6
20260508232340 17 339 0.0 3.2 0.00 0.00 0.00 37 1006.6
20260508232234 17 339 0.0 3.2 0.00 0.00 0.00 36 1006.6
20260508232129 17 349 0.0 3.2 0.00 0.00 0.00 36 1006.1
20260508232024 17 0.0 0.0 0.00 0.00 0.00 35
20260508225855 17 302 3.2 12.9 0.00 0.00 0.00 36 1006.6
20260508225807 17 232 3.2 12.9 0.00 0.00 0.00 36 1006.6
20260508225748 17 226 3.2 12.9 0.00 0.00 0.00 35 1006.6
20260508225643 17 210 0.0 12.9 0.00 0.00 0.00 35 1006.9
20260508225538 17 200 3.2 12.9 0.00 0.00 0.00 35 1006.6
20260508225432 17 267 1.6 12.9 0.00 0.00 0.00 35 1006.6
20260508225326 17 303 9.7 12.9 0.00 0.00 0.00 34 1006.6
20260508225300 17 241 4.8 11.3 0.00 0.00 0.00 36 1006.6
20260508225221 17 190 3.2 11.3 0.00 0.00 0.00 36 1006.9
20260508225114 17 259 1.6 11.3 0.00 0.00 0.00 35 1006.6
20260508225009 18 139 4.8 11.3 0.00 0.00 0.00 35 1006.6
20260508224903 18 227 3.2 11.3 0.00 0.00 0.00 34 1006.6
20260508224758 18 220 1.6 11.3 0.00 0.00 0.00 34 1006.9
20260508224650 17 231 3.2 11.3 0.00 0.00 0.00 35 1006.9
20260508224544 18 331 4.8 11.3 0.00 0.00 0.00 36 1006.6
20260508224439 18 63 4.8 11.3 0.00 0.00 0.00 35 1006.6
20260508224333 18 291 8.0 11.3 0.00 0.00 0.00 34 1006.9
20260508224245 18 220 1.6 9.7 0.00 0.00 0.00 35 1006.9
20260508224228 18 253 1.6 9.7 0.00 0.00 0.00 34 1006.9
20260508224122 17 308 3.2 9.7 0.00 0.00 0.00 34 1006.6
20260508224029 17 212 1.6 9.7 0.00 0.00 0.00 35 1006.9
20260508223911 17 242 3.2 9.7 0.00 0.00 0.00 34 1006.9
20260508223805 17 269 3.2 9.7 0.00 0.00 0.00 36 1006.9
20260508223738 17 269 3.2 9.7 0.00 0.00 0.00 36 1006.6
20260508223700 17 195 3.2 9.7 0.00 0.00 0.00 37 1006.6
20260508223554 18 194 8.0 9.7 0.00 0.00 0.00 35 1006.9
20260508223448 18 152 3.2 9.7 0.00 0.00 0.00 40 1006.9
20260508223343 18 201 1.6 9.7 0.00 0.00 0.00 36 1006.6
20260508223237 18 251 4.8 9.7 0.00 0.00 0.00 36 1006.9
20260508223131 18 238 4.8 11.3 0.00 0.00 0.00 36 1006.9
20260508223026 18 161 4.8 11.3 0.00 0.00 0.00 35 1006.6
20260508222921 18 241 4.8 11.3 0.00 0.00 0.00 36 1006.9
20260508222815 17 233 0.0 11.3 0.00 0.00 0.00 36 1006.9
20260508222727 17 234 0.0 12.9 0.00 0.00 0.00 38 1006.6
20260508222707 17 233 0.0 12.9 0.00 0.00 0.00 36 1006.6
20260508222600 17 200 3.2 12.9 0.00 0.00 0.00 36 1006.9
20260508222454 17 234 4.8 12.9 0.00 0.00 0.00 36 1006.9
20260508222348 17 181 3.2 12.9 0.00 0.00 0.00 36 1006.9
20260508222242 17 119 3.2 12.9 0.00 0.00 0.00 36 1006.9
20260508222227 17 147 4.8 12.9 0.00 0.00 0.00 36 1006.9
20260508222137 17 191 9.7 12.9 0.00 0.00 0.00 36 1006.9
20260508222031 17 258 6.4 12.9 0.00 0.00 0.00 36 1006.9
20260508221926 18 176 4.8 12.9 0.00 0.00 0.00 36 1006.9
20260508221820 18 185 9.7 12.9 0.00 0.00 0.00 35 1006.9
20260508221721 17 310 4.8 11.3 0.00 0.00 0.00 37 1006.9
20260508221715 17 275 1.6 11.3 0.00 0.00 0.00 36 1006.9
20260508221622 17 265 1.6 16.1 0.00 0.00 0.00 36 1006.9
20260508221503 17 144 4.8 16.1 0.00 0.00 0.00 36 1006.9
20260508221357 17 142 1.6 16.1 0.00 0.00 0.00 36 1006.6
20260508221251 17 202 4.8 16.1 0.00 0.00 0.00 35 1006.6
20260508221214 18 256 3.2 16.1 0.00 0.00 0.00 35 1006.6
20260508221146 18 143 6.4 16.1 0.00 0.00 0.00 35 1006.6
20260508221040 17 268 3.2 16.1 0.00 0.00 0.00 35 1006.6
20260508220935 17 238 4.8 16.1 0.00 0.00 0.00 36 1006.6
20260508220829 17 201 6.4 16.1 0.00 0.00 0.00 36 1006.9
20260508220724 17 181 6.4 16.1 0.00 0.00 0.00 35 1006.9
20260508220708 17 184 12.9 16.1 0.00 0.00 0.00 35 1006.9
20260508220618 17 227 3.2 16.1 0.00 0.00 0.00 36 1006.9
20260508220512 17 144 3.2 16.1 0.00 0.00 0.00 36 1006.9
20260508220406 17 139 4.8 16.1 0.00 0.00 0.00 36 1006.9
20260508220301 17 230 3.2 16.1 0.00 0.00 0.00 37 1007.3
20260508220201 17 187 12.9 16.1 0.00 0.00 0.00 36 1006.9
20260508220155 17 187 12.9 16.1 0.00 0.00 0.00 36 1006.9
20260508215942 18 147 4.8 12.9 0.00 0.00 0.00 36 1006.9
20260508215837 18 246 6.4 12.9 0.00 0.00 0.00 36 1006.9
20260508215731 18 202 6.4 12.9 0.00 0.00 0.00 36 1007.3
20260508215653 18 156 3.2 12.9 0.00 0.00 0.00 36 1007.3
20260508215625 18 227 3.2 12.9 0.00 0.00 0.00 37 1006.9
20260508215519 17 187 1.6 12.9 0.00 0.00 0.00 38 1006.9
20260508215414 17 197 4.8 20.9 0.00 0.00 0.00 36 1006.9
20260508215309 17 172 1.6 20.9 0.00 0.00 0.00 37 1006.9
20260508215203 17 206 1.6 20.9 0.00 0.00 0.00 37 1006.9
20260508215148 17 189 6.4 20.9 0.00 0.00 0.00 37 1006.9
20260508215058 17 193 11.3 20.9 0.00 0.00 0.00 36 1007.3
20260508214952 17 160 11.3 20.9 0.00 0.00 0.00 36 1007.3
20260508214847 17 180 4.8 20.9 0.00 0.00 0.00 37 1006.9
20260508214740 17 205 6.4 20.9 0.00 0.00 0.00 37 1007.3
20260508214641 17 179 4.8 20.9 0.00 0.00 0.00 37 1006.9
20260508214634 17 153 3.2 20.9 0.00 0.00 0.00 37 1006.9
20260508214530 17 237 12.9 20.9 0.00 0.00 0.00 37 1007.3
20260508214424 17 178 3.2 6.4 0.00 0.00 0.00 39 1007.3
20260508214318 17 196 0.0 6.4 0.00 0.00 0.00 40 1007.3
20260508214212 17 298 1.6 6.4 0.00 0.00 0.00 38 1007.3
20260508214134 17 230 0.0 6.4 0.00 0.00 0.00 41 1007.3
20260508214107 17 178 3.2 12.9 0.00 0.00 0.00 38 1007.3
20260508214002 17 162 1.6 12.9 0.00 0.00 0.00 37 1007.3
20260508213856 17 155 1.6 12.9 0.00 0.00 0.00 38 1007.3
20260508213750 17 178 3.2 12.9 0.00 0.00 0.00 37 1007.3
20260508213657 17 219 1.6 16.1 0.00 0.00 0.00 44 1007.3
20260508213628 17 215 3.2 16.1 0.00 0.00 0.00 45 1007.3
20260508213539 17 228 1.6 16.1 0.00 0.00 0.00 45 1007.3
20260508213432 17 122 3.2 16.1 0.00 0.00 0.00 45 1007.3
20260508213328 17 172 4.8 16.1 0.00 0.00 0.00 46 1007.3
20260508213221 16 151 3.2 16.1 0.00 0.00 0.00 47 1007.3
20260508213115 16 150 9.7 16.1 0.00 0.00 0.00 43 1007.3
20260508213010 16 176 3.2 16.1 0.00 0.00 0.00 47 1007.3
20260508212905 17 124 6.4 16.1 0.00 0.00 0.00 47 1007.3
20260508212758 17 201 9.7 16.1 0.00 0.00 0.00 46 1007.3
20260508212653 18 200 8.0 16.1 0.00 0.00 0.00 43 1006.9
20260508212616 18 183 8.0 16.1 0.00 0.00 0.00 42 1006.9
20260508212547 18 181 12.9 16.1 0.00 0.00 0.00 40 1006.9
20260508212441 18 340 1.6 12.9 0.00 0.00 0.00 36 1006.6
20260508212336 17 216 1.6 12.9 0.00 0.00 0.00 36 1007.3
20260508212230 17 216 0.0 12.9 0.00 0.00 0.00 37 1007.3
20260508212124 17 154 4.8 14.5 0.00 0.00 0.00 36 1007.3
20260508212109 17 125 3.2 14.5 0.00 0.00 0.00 37 1007.3
20260508212020 17 157 6.4 14.5 0.00 0.00 0.00 37 1007.3
20260508211913 17 205 3.2 14.5 0.00 0.00 0.00 36 1007.3
20260508211808 17 278 4.8 14.5 0.00 0.00 0.00 36 1007.3
20260508211702 17 254 6.4 14.5 0.00 0.00 0.00 36 1007.3
20260508211603 17 274 3.2 14.5 0.00 0.00 0.00 36 1007.3
20260508211557 17 310 3.2 14.5 0.00 0.00 0.00 37 1007.3
20260508211451 17 279 4.8 14.5 0.00 0.00 0.00 36 1007.3
20260508211358 17 280 6.4 14.5 0.00 0.00 0.00 37 1007.3
20260508211240 17 256 6.4 14.5 0.00 0.00 0.00 37 1007.3
20260508211134 17 231 4.8 16.1 0.00 0.00 0.00 37 1007.3
20260508211057 17 288 3.2 16.1 0.00 0.00 0.00 37 1007.3
20260508211028 17 249 4.8 16.1 0.00 0.00 0.00 37 1007.3
20260508210923 16 223 4.8 16.1 0.00 0.00 0.00 37 1007.3
20260508210816 16 234 4.8 16.1 0.00 0.00 0.00 38 1007.3
20260508210711 17 244 9.7 16.1 0.00 0.00 0.00 37 1007.3
20260508210550 17 346 3.2 16.1 0.00 0.00 0.00 37 1007.3
20260508210459 17 284 4.8 16.1 0.00 0.00 0.00 36 1007.3
20260508210354 17 227 4.8 16.1 0.00 0.00 0.00 35 1007.3
20260508210248 17 267 6.4 16.1 0.00 0.00 0.00 36 1007.3
20260508210142 17 290 12.9 16.1 0.00 0.00 0.00 35 1006.9
20260508210043 17 239 6.4 12.9 0.00 0.00 0.00 35 1006.9
20260508210037 17 239 6.4 12.9 0.00 0.00 0.00 35 1007.3
20260508205931 18 216 4.8 12.9 0.00 0.00 0.00 35 1007.6
20260508205826 18 176 8.0 12.9 0.00 0.00 0.00 34 1007.3
20260508205720 18 256 4.8 12.9 0.00 0.00 0.00 34 1007.3
20260508205614 18 339 4.8 12.9 0.00 0.00 0.00 32 1007.3
20260508205536 18 266 1.6 12.9 0.00 0.00 0.00 34 1007.6
20260508205508 18 238 3.2 12.9 0.00 0.00 0.00 34 1007.6
20260508205402 18 134 0.0 12.9 0.00 0.00 0.00 34 1007.3
20260508205256 18 177 4.8 12.9 0.00 0.00 0.00 34 1007.3
20260508205151 18 206 6.4 12.9 0.00 0.00 0.00 34 1007.3
20260508205045 18 279 3.2 12.9 0.00 0.00 0.00 35 1007.3
20260508205029 18 268 0.0 12.9 0.00 0.00 0.00 35 1007.3
20260508204939 18 350 3.2 12.9 0.00 0.00 0.00 34 1007.3
20260508204833 18 266 3.2 12.9 0.00 0.00 0.00 34 1007.3
20260508204727 18 276 4.8 9.7 0.00 0.00 0.00 33 1007.3
20260508204623 18 251 3.2 12.9 0.00 0.00 0.00 33 1007.6
20260508204516 18 342 0.0 12.9 0.00 0.00 0.00 35 1007.3
20260508204411 18 257 1.6 14.5 0.00 0.00 0.00 35 1007.6
20260508204306 18 210 3.2 14.5 0.00 0.00 0.00 34 1007.3
20260508204200 17 216 3.2 14.5 0.00 0.00 0.00 36 1007.3
20260508204054 17 99 0.0 14.5 0.00 0.00 0.00 35 1007.6
20260508204017 17 359 3.2 14.5 0.00 0.00 0.00 35 1007.3
20260508203949 17 226 4.8 14.5 0.00 0.00 0.00 35 1007.3
20260508203843 17 222 8.0 14.5 0.00 0.00 0.00 35 1007.3
20260508203737 17 170 9.7 14.5 0.00 0.00 0.00 35 1007.6
20260508203631 17 187 4.8 14.5 0.00 0.00 0.00 35 1007.6
20260508203510 17 190 12.9 14.5 0.00 0.00 0.00 35 1007.6
20260508203420 17 203 6.4 14.5 0.00 0.00 0.00 35 1007.6
20260508203314 17 323 1.6 14.5 0.00 0.00 0.00 35 1007.6
20260508203208 17 289 9.7 14.5 0.00 0.00 0.00 34 1007.6
20260508203102 17 276 4.8 14.5 0.00 0.00 0.00 35 1007.6
20260508203003 17 261 6.4 12.9 0.00 0.00 0.00 34 1007.6
20260508202957 17 261 6.4 12.9 0.00 0.00 0.00 34 1007.6
20260508202851 17 208 8.0 12.9 0.00 0.00 0.00 35 1007.6
20260508202746 17 196 8.0 12.9 0.00 0.00 0.00 35 1007.6
20260508202640 17 247 6.4 12.9 0.00 0.00 0.00 35 1007.6
20260508202534 17 72 6.4 12.9 0.00 0.00 0.00 34 1007.9
20260508202457 17 272 9.7 12.9 0.00 0.00 0.00 34 1007.9
20260508202429 17 113 1.6 12.9 0.00 0.00 0.00 36 1007.9
20260508202323 17 205 3.2 12.9 0.00 0.00 0.00 34 1007.6
20260508202231 17 184 0.0 12.9 0.00 0.00 0.00 33 1007.9
20260508202111 17 255 0.0 12.9 0.00 0.00 0.00 33 1007.6
20260508202019 17 229 0.0 17.7 0.00 0.00 0.00 35 1007.9
20260508201950 17 153 0.0 17.7 0.00 0.00 0.00 36 1007.9
20260508201859 16 295 4.8 17.7 0.00 0.00 0.00 34 1007.9
20260508201755 17 244 4.8 17.7 0.00 0.00 0.00 35 1007.9
20260508201648 17 249 6.4 17.7 0.00 0.00 0.00 35 1007.9
20260508201542 17 236 8.0 17.7 0.00 0.00 0.00 34 1007.9
20260508201530 16 186 6.4 14.5 0.00 0.00 0.00 36 1008.6
20260508201526 16 236 0.0 20.9 0.00 0.00 0.00 36 1008.6
20260508201522 17 272 3.2 14.5 0.00 0.00 0.00 36 1008.3
20260508201518 17 139 4.8 17.7 0.00 0.00 0.00 37 1008.3
20260508201514 16 233 6.4 12.9 0.00 0.00 0.00 35 1007.9
20260508201506 17 277 0.0 17.7 0.00 0.00 0.00 36 1007.9
20260508201502 17 172 1.6 17.7 0.00 0.00 0.00 34 1007.9
20260508201453 17 230 6.4 17.7 0.00 0.00 0.00 37 1007.9
20260508201231 17 203 3.2 17.7 0.00 0.00 0.00 36 1007.9
20260508201223 17 244 9.7 17.7 0.00 0.00 0.00 34 1007.9
20260508201214 16 265 4.8 16.1 0.00 0.00 0.00 36 1007.9
20260508200948 16 242 4.8 16.1 0.00 0.00 0.00 35 1007.9
20260508200944 16 283 6.4 16.1 0.00 0.00 0.00 36 1007.9
20260508200936 16 254 6.4 16.1 0.00 0.00 0.00 35 1007.9
20260508200716 16 213 9.7 16.1 0.00 0.00 0.00 35 1007.9
20260508200707 16 232 9.7 12.9 0.00 0.00 0.00 35 1007.9
20260508200659 16 233 6.4 12.9 0.00 0.00 0.00 35 1007.9
20260508200437 16 197 9.7 12.9 0.00 0.00 0.00 35 1008.3
20260508200429 17 193 1.6 12.9 0.00 0.00 0.00 34 1008.3
20260508200205 17 186 9.7 12.9 0.00 0.00 0.00 34 1008.3
20260508200157 17 254 3.2 12.9 0.00 0.00 0.00 36 1008.3
20260508195935 17 272 3.2 14.5 0.00 0.00 0.00 36 1008.3
20260508195927 17 339 1.6 17.7 0.00 0.00 0.00 37 1008.3
20260508195705 17 323 3.2 17.7 0.00 0.00 0.00 37 1008.3
20260508195656 17 299 8.0 17.7 0.00 0.00 0.00 36 1008.3
20260508195648 17 290 3.2 17.7 0.00 0.00 0.00 35 1008.3
20260508195427 17 241 1.6 17.7 0.00 0.00 0.00 35 1008.3
20260508195423 17 201 3.2 17.7 0.00 0.00 0.00 35 1008.3
20260508195414 17 255 6.4 17.7 0.00 0.00 0.00 36 1008.3
20260508195150 16 234 8.0 17.7 0.00 0.00 0.00 36 1008.3
20260508195142 16 242 11.3 17.7 0.00 0.00 0.00 38 1008.3
20260508195133 17 150 3.2 17.7 0.00 0.00 0.00 36 1008.3
20260508194911 17 174 16.1 17.7 0.00 0.00 0.00 35 1008.3
20260508194902 17 213 6.4 14.5 0.00 0.00 0.00 36 1008.3
20260508194642 17 264 6.4 12.9 0.00 0.00 0.00 35 1008.3
20260508194634 17 196 1.6 11.3 0.00 0.00 0.00 36 1008.6
20260508194411 17 230 0.0 11.3 0.00 0.00 0.00 37 1008.6
20260508194406 17 256 0.0 11.3 0.00 0.00 0.00 36 1008.6
20260508194358 17 198 1.6 11.3 0.00 0.00 0.00 37 1008.6
20260508194349 16 209 3.2 14.5 0.00 0.00 0.00 37 1008.3
20260508194127 16 53 1.6 14.5 0.00 0.00 0.00 36 1008.6
20260508194118 16 134 6.4 14.5 0.00 0.00 0.00 36 1008.6
20260508193856 16 221 9.7 14.5 0.00 0.00 0.00 35 1008.6
20260508193848 16 154 4.8 17.7 0.00 0.00 0.00 37 1008.6
20260508193627 16 303 1.6 17.7 0.00 0.00 0.00 37 1008.6
20260508193619 16 289 3.2 17.7 0.00 0.00 0.00 37 1009.0
20260508193611 16 67 0.0 20.9 0.00 0.00 0.00 38 1008.6
20260508193259 16 227 8.0 20.9 0.00 0.00 0.00 37 1009.0
20260508193153 16 189 6.4 20.9 0.00 0.00 0.00 36 1009.0
20260508193048 16 231 6.4 20.9 0.00 0.00 0.00 37 1009.0
20260508192943 16 237 4.8 20.9 0.00 0.00 0.00 36 1009.0
20260508192837 16 193 6.4 20.9 0.00 0.00 0.00 37 1009.0
20260508192732 16 194 12.9 20.9 0.00 0.00 0.00 36 1009.0
20260508192626 16 213 4.8 20.9 0.00 0.00 0.00 38 1008.6
20260508192520 16 163 11.3 20.9 0.00 0.00 0.00 36 1009.0
20260508192415 16 264 8.0 16.1 0.00 0.00 0.00 37 1008.6
20260508192338 16 199 4.8 16.1 0.00 0.00 0.00 38 1009.0
20260508192308 16 247 8.0 16.1 0.00 0.00 0.00 37 1009.0
20260508192203 16 226 3.2 9.7 0.00 0.00 0.00 38 1009.0
20260508192058 16 274 4.8 9.7 0.00 0.00 0.00 36 1009.0
20260508191952 16 209 4.8 11.3 0.00 0.00 0.00 36 1009.0
20260508191846 16 205 1.6 11.3 0.00 0.00 0.00 35 1009.0
20260508191830 16 318 0.0 11.3 0.00 0.00 0.00 35 1009.0
20260508191741 16 303 1.6 11.3 0.00 0.00 0.00 35 1009.0
20260508191635 16 256 4.8 14.5 0.00 0.00 0.00 38 1009.0
20260508191529 16 266 4.8 14.5 0.00 0.00 0.00 37 1009.0
20260508191423 16 234 1.6 16.1 0.00 0.00 0.00 38 1009.0
20260508191325 16 333 3.2 16.1 0.00 0.00 0.00 37 1009.0
20260508191319 16 266 3.2 16.1 0.00 0.00 0.00 37 1009.0
20260508191213 15 266 3.2 16.1 0.00 0.00 0.00 37 1009.0
20260508191107 15 287 4.8 16.1 0.00 0.00 0.00 37 1009.0
20260508190856 15 197 3.2 16.1 0.00 0.00 0.00 37 1009.0
20260508190818 15 161 3.2 16.1 0.00 0.00 0.00 37 1009.0
20260508190750 15 218 6.4 16.1 0.00 0.00 0.00 36 1009.0
20260508190644 16 170 14.5 16.1 0.00 0.00 0.00 36 1009.0
20260508190551 16 188 11.3 16.1 0.00 0.00 0.00 36 1009.0
20260508190434 16 161 1.6 12.9 0.00 0.00 0.00 37 1009.0
20260508190312 16 241 1.6 14.5 0.00 0.00 0.00 37 1009.0
20260508190116 16 210 4.8 14.5 0.00 0.00 0.00 36 1009.0
20260508190010 16 252 6.4 14.5 0.00 0.00 0.00 36 1009.0
20260508185904 16 175 3.2 14.5 0.00 0.00 0.00 36 1009.0
20260508185805 16 265 8.0 14.5 0.00 0.00 0.00 36 1009.0
20260508185759 16 265 8.0 14.5 0.00 0.00 0.00 36 1009.0
20260508185653 16 144 6.4 14.5 0.00 0.00 0.00 40 1009.0
20260508185547 16 114 3.2 14.5 0.00 0.00 0.00 37 1009.0
20260508185440 16 150 8.0 14.5 0.00 0.00 0.00 36 1009.3
20260508185339 16 219 3.2 9.7 0.00 0.00 0.00 37 1009.3
20260508185258 16 227 3.2 9.7 0.00 0.00 0.00 37 1009.3
20260508185229 16 249 3.2 11.3 0.00 0.00 0.00 36 1009.3
20260508185124 16 240 3.2 11.3 0.00 0.00 0.00 39 1009.3
20260508185017 16 220 6.4 11.3 0.00 0.00 0.00 36 1009.3
20260508184913 16 231 1.6 12.9 0.00 0.00 0.00 36 1009.0
20260508184806 16 123 0.0 16.1 0.00 0.00 0.00 37 1009.3
20260508184751 16 121 0.0 16.1 0.00 0.00 0.00 37 1009.3
20260508184701 16 137 4.8 16.1 0.00 0.00 0.00 36 1009.0
20260508184555 16 197 3.2 16.1 0.00 0.00 0.00 37 1009.3
20260508184449 16 249 0.0 16.1 0.00 0.00 0.00 38 1009.3
20260508184344 16 208 3.2 16.1 0.00 0.00 0.00 38 1009.3
20260508184245 16 240 6.4 16.1 0.00 0.00 0.00 36 1009.3
20260508184238 16 221 6.4 16.1 0.00 0.00 0.00 37 1009.3
20260508184133 15 210 3.2 16.1 0.00 0.00 0.00 38 1009.3
20260508184027 15 224 6.4 20.9 0.00 0.00 0.00 40 1009.3
20260508183921 16 202 9.7 20.9 0.00 0.00 0.00 38 1009.3
20260508183815 16 141 9.7 20.9 0.00 0.00 0.00 38 1009.3
20260508183737 15 219 3.2 20.9 0.00 0.00 0.00 39 1009.3
20260508183709 15 162 12.9 20.9 0.00 0.00 0.00 40 1009.3
20260508183603 15 117 0.0 20.9 0.00 0.00 0.00 40 1009.3
20260508183458 14 232 4.8 20.9 0.00 0.00 0.00 39 1009.3
20260508183352 14 227 0.0 20.9 0.00 0.00 0.00 40 1009.3
20260508183230 15 193 8.0 20.9 0.00 0.00 0.00 39 1009.3
20260508183140 15 207 12.9 20.9 0.00 0.00 0.00 40 1009.6
20260508183035 15 203 12.9 20.9 0.00 0.00 0.00 39 1009.6
20260508182929 15 200 11.3 20.9 0.00 0.00 0.00 40 1009.3
20260508182823 15 246 11.3 20.9 0.00 0.00 0.00 39 1009.3
20260508182718 15 183 14.5 20.9 0.00 0.00 0.00 38 1009.3
20260508182611 15 215 16.1 20.9 0.00 0.00 0.00 39 1009.3
20260508182505 15 126 6.4 20.9 0.00 0.00 0.00 41 1009.3
20260508182359 15 206 9.7 20.9 0.00 0.00 0.00 39 1009.3
20260508182254 15 195 11.3 20.9 0.00 0.00 0.00 39 1009.3
20260508182217 15 216 11.3 17.7 0.00 0.00 0.00 39 1009.3
20260508182148 15 171 6.4 14.5 0.00 0.00 0.00 39 1009.3
20260508182041 15 161 8.0 14.5 0.00 0.00 0.00 39 1009.3
20260508181936 16 181 8.0 14.5 0.00 0.00 0.00 38 1009.3
20260508181830 16 240 11.3 14.5 0.00 0.00 0.00 37 1009.3
20260508181725 15 219 4.8 14.5 0.00 0.00 0.00 38 1009.3
20260508181709 15 226 3.2 14.5 0.00 0.00 0.00 39 1009.3
20260508181619 15 198 3.2 14.5 0.00 0.00 0.00 39 1009.3
20260508181513 15 169 0.0 14.5 0.00 0.00 0.00 38 1009.3
20260508181407 15 199 6.4 14.5 0.00 0.00 0.00 38 1009.3
20260508181302 15 225 12.9 14.5 0.00 0.00 0.00 38 1009.3
20260508181203 15 133 6.4 14.5 0.00 0.00 0.00 39 1009.6
20260508181156 15 193 6.4 14.5 0.00 0.00 0.00 38 1009.6
20260508181050 15 171 4.8 14.5 0.00 0.00 0.00 38 1009.6
20260508180945 15 136 4.8 14.5 0.00 0.00 0.00 38 1009.6
20260508180839 15 134 4.8 14.5 0.00 0.00 0.00 39 1009.3
20260508180734 16 146 8.0 14.5 0.00 0.00 0.00 37 1009.6
20260508180657 16 204 9.7 14.5 0.00 0.00 0.00 37 1009.6
20260508180628 16 199 8.0 14.5 0.00 0.00 0.00 37 1009.6
20260508180522 16 198 12.9 14.5 0.00 0.00 0.00 38 1009.6
20260508180416 16 209 6.4 12.9 0.00 0.00 0.00 36 1009.6
20260508180311 16 142 3.2 9.7 0.00 0.00 0.00 37 1009.6
20260508180205 16 174 3.2 9.7 0.00 0.00 0.00 35 1009.6
20260508180150 16 174 3.2 9.7 0.00 0.00 0.00 35 1009.6
20260508180104 16 147 1.6 9.7 0.00 0.00 0.00 36 1009.6
20260508175954 16 150 1.6 11.3 0.00 0.00 0.00 35 1009.6
20260508175849 16 324 1.6 16.1 0.00 0.00 0.00 35 1009.6
20260508175743 16 71 1.6 16.1 0.00 0.00 0.00 36 1009.6
20260508175637 15 177 1.6 16.1 0.00 0.00 0.00 37 1009.6
20260508175532 15 157 1.6 16.1 0.00 0.00 0.00 36 1009.6
20260508175426 15 196 4.8 16.1 0.00 0.00 0.00 36 1009.6
20260508175320 15 242 1.6 16.1 0.00 0.00 0.00 35 1009.6
20260508175214 15 231 6.4 16.1 0.00 0.00 0.00 37 1009.6
20260508175137 15 161 1.6 16.1 0.00 0.00 0.00 35 1010.0
20260508175109 15 135 3.2 16.1 0.00 0.00 0.00 35 1010.0
20260508175004 15 211 9.7 16.1 0.00 0.00 0.00 36 1010.0
20260508174857 15 186 4.8 16.1 0.00 0.00 0.00 36 1010.0
20260508174752 16 172 3.2 16.1 0.00 0.00 0.00 35 1010.0
20260508174647 16 319 3.2 16.1 0.00 0.00 0.00 36 1010.4
20260508174631 16 336 4.8 16.1 0.00 0.00 0.00 35 1010.4
20260508174540 15 239 3.2 16.1 0.00 0.00 0.00 37 1010.4
20260508174434 15 211 3.2 16.1 0.00 0.00 0.00 38 1010.0
20260508174330 15 173 11.3 16.1 0.00 0.00 0.00 35 1010.4
20260508174224 15 178 3.2 16.1 0.00 0.00 0.00 37 1010.4
20260508174124 14 9 3.2 16.1 0.00 0.00 0.00 36 1010.4
20260508174116 14 266 4.8 16.1 0.00 0.00 0.00 37 1010.4
20260508174012 15 249 11.3 16.1 0.00 0.00 0.00 36 1010.4
20260508173906 15 227 9.7 12.9 0.00 0.00 0.00 36 1010.0
20260508173759 15 221 0.0 12.9 0.00 0.00 0.00 35 1010.0
20260508173654 15 295 8.0 12.9 0.00 0.00 0.00 37 1010.4
20260508173616 15 206 4.8 12.9 0.00 0.00 0.00 36 1010.4
20260508173548 15 246 6.4 12.9 0.00 0.00 0.00 37 1010.4
20260508173443 16 260 8.0 16.1 0.00 0.00 0.00 36 1010.0
20260508173336 16 233 6.4 16.1 0.00 0.00 0.00 38 1010.0
20260508173231 16 191 4.8 16.1 0.00 0.00 0.00 36 1010.0
20260508173125 16 238 6.4 16.1 0.00 0.00 0.00 35 1010.4
20260508173110 16 236 4.8 16.1 0.00 0.00 0.00 35 1010.4
20260508173019 16 164 3.2 16.1 0.00 0.00 0.00 38 1010.4
20260508172913 16 345 1.6 16.1 0.00 0.00 0.00 37 1010.4
20260508172808 15 304 4.8 16.1 0.00 0.00 0.00 38 1010.4
20260508172702 15 327 6.4 16.1 0.00 0.00 0.00 39 1010.4
20260508172603 15 321 4.8 16.1 0.00 0.00 0.00 37 1010.4
20260508172557 15 321 4.8 16.1 0.00 0.00 0.00 37 1010.4
20260508172450 15 176 3.2 11.3 0.00 0.00 0.00 37 1010.4
20260508172346 15 199 3.2 11.3 0.00 0.00 0.00 38 1010.4
20260508172240 15 316 0.0 11.3 0.00 0.00 0.00 38 1010.4
20260508172133 15 232 3.2 11.3 0.00 0.00 0.00 38 1010.4
20260508172056 15 180 3.2 11.3 0.00 0.00 0.00 37 1010.4
20260508172028 15 216 4.8 11.3 0.00 0.00 0.00 36 1010.8
20260508171922 15 213 1.6 12.9 0.00 0.00 0.00 37 1010.4
20260508171816 15 206 3.2 12.9 0.00 0.00 0.00 36 1010.4
20260508171711 15 230 6.4 12.9 0.00 0.00 0.00 36 1010.8
20260508171605 15 108 1.6 12.9 0.00 0.00 0.00 36 1010.8
20260508171549 15 246 0.0 12.9 0.00 0.00 0.00 36 1010.8
20260508171459 15 245 1.6 12.9 0.00 0.00 0.00 39 1010.8
20260508171353 15 227 6.4 14.5 0.00 0.00 0.00 39 1010.8
20260508171248 15 223 4.8 14.5 0.00 0.00 0.00 39 1010.4
20260508171143 15 158 1.6 14.5 0.00 0.00 0.00 40 1010.4
20260508171045 15 219 1.6 14.5 0.00 0.00 0.00 39 1010.4
20260508171039 15 67 3.2 14.5 0.00 0.00 0.00 39 1010.4
20260508170933 15 274 1.6 14.5 0.00 0.00 0.00 40 1010.8
20260508170830 15 296 8.0 14.5 0.00 0.00 0.00 38 1010.8
20260508170724 15 232 6.4 14.5 0.00 0.00 0.00 41 1010.8
20260508170618 15 210 3.2 14.5 0.00 0.00 0.00 40 1010.8
20260508170541 15 147 4.8 14.5 0.00 0.00 0.00 40 1010.8
20260508170513 14 211 3.2 14.5 0.00 0.00 0.00 40 1010.8
20260508170407 14 207 6.4 14.5 0.00 0.00 0.00 40 1010.8
20260508170301 14 295 6.4 14.5 0.00 0.00 0.00 41 1010.8
20260508170209 14 25 3.2 14.5 0.00 0.00 0.00 39 1010.8
20260508170035 14 253 3.2 14.5 0.00 0.00 0.00 39 1010.8
20260508165945 14 98 1.6 14.5 0.00 0.00 0.00 39 1010.8
20260508165839 14 247 1.6 14.5 0.00 0.00 0.00 40 1010.8
20260508165734 14 357 3.2 14.5 0.00 0.00 0.00 39 1010.8
20260508165628 14 210 3.2 14.5 0.00 0.00 0.00 39 1010.8
20260508165529 14 211 8.0 14.5 0.00 0.00 0.00 38 1010.8
20260508165523 14 218 8.0 14.5 0.00 0.00 0.00 40 1010.8
20260508165417 14 228 4.8 14.5 0.00 0.00 0.00 41 1010.8
20260508165312 14 251 4.8 14.5 0.00 0.00 0.00 41 1010.8
20260508165205 14 161 8.0 14.5 0.00 0.00 0.00 38 1010.8
20260508165101 14 213 3.2 14.5 0.00 0.00 0.00 39 1010.8
20260508165023 14 199 4.8 14.5 0.00 0.00 0.00 38 1010.8
20260508164954 15 202 4.8 14.5 0.00 0.00 0.00 38 1010.8
20260508164850 15 208 6.4 14.5 0.00 0.00 0.00 37 1010.8
20260508164756 15 236 6.4 16.1 0.00 0.00 0.00 38 1010.8
20260508164752 15 305 9.7 14.5 0.00 0.00 0.00 40 1010.8
20260508164743 15 257 4.8 16.1 0.00 0.00 0.00 39 1010.8
20260508164735 15 7 4.8 16.1 0.00 0.00 0.00 38 1010.8
20260508164427 14 297 1.6 16.1 0.00 0.00 0.00 39 1011.1
20260508164320 14 261 1.6 16.1 0.00 0.00 0.00 38 1010.8
20260508164239 14 127 0.0 16.1 0.00 0.00 0.00 37 1011.1
20260508164235 15 323 4.8 16.1 0.00 0.00 0.00 38 1011.1
20260508164226 15 323 4.8 16.1 0.00 0.00 0.00 37 1011.1
20260508164002 14 127 0.0 16.1 0.00 0.00 0.00 37 1011.1
20260508163856 14 123 9.7 16.1 0.00 0.00 0.00 37 1011.1
20260508163750 15 189 4.8 16.1 0.00 0.00 0.00 38 1011.1
20260508163646 15 148 0.0 16.1 0.00 0.00 0.00 39 1011.1
20260508163539 14 118 3.2 16.1 0.00 0.00 0.00 38 1011.4
20260508163501 14 193 3.2 16.1 0.00 0.00 0.00 40 1011.4
20260508163434 14 248 8.0 16.1 0.00 0.00 0.00 38 1011.1
20260508163329 14 171 4.8 14.5 0.00 0.00 0.00 38 1011.1
20260508163009 14 236 1.6 12.9 0.00 0.00 0.00 36 1011.4
20260508162954 14 236 1.6 16.1 0.00 0.00 0.00 36 1011.4
20260508162904 14 232 4.8 16.1 0.00 0.00 0.00 38 1011.4
20260508162758 15 216 0.0 16.1 0.00 0.00 0.00 36 1011.4
20260508162546 14 278 4.8 16.1 0.00 0.00 0.00 39 1011.1
20260508162447 13 170 3.2 16.1 0.00 0.00 0.00 38 1011.1
20260508162441 13 215 4.8 16.1 0.00 0.00 0.00 39 1011.4
20260508162335 13 277 0.0 16.1 0.00 0.00 0.00 38 1011.4
20260508162230 13 222 3.2 16.1 0.00 0.00 0.00 37 1011.1
20260508162018 14 195 12.9 16.1 0.00 0.00 0.00 36 1011.1
20260508161941 14 222 6.4 14.5 0.00 0.00 0.00 36 1011.1
20260508161913 14 207 4.8 14.5 0.00 0.00 0.00 37 1011.1
20260508161807 14 223 6.4 14.5 0.00 0.00 0.00 36 1011.1
20260508161701 14 231 3.2 14.5 0.00 0.00 0.00 39 1011.1
20260508161555 15 258 8.0 14.5 0.00 0.00 0.00 36 1011.1
20260508161455 15 195 1.6 14.5 0.00 0.00 0.00 36 1011.1
20260508161434 15 250 4.8 14.5 0.00 0.00 0.00 35 1011.4
20260508161344 15 206 4.8 9.7 0.00 0.00 0.00 38 1011.1
20260508161238 15 216 6.4 9.7 0.00 0.00 0.00 36 1010.8
20260508161028 15 217 3.2 16.1 0.00 0.00 0.00 39 1011.1
20260508160929 15 104 1.6 16.1 0.00 0.00 0.00 38 1011.1
20260508160922 14 154 1.6 16.1 0.00 0.00 0.00 39 1011.1
20260508160816 13 195 1.6 16.1 0.00 0.00 0.00 39 1011.1
20260508160710 13 98 0.0 16.1 0.00 0.00 0.00 38 1011.1
20260508160620 13 57 1.6 16.1 0.00 0.00 0.00 37 1011.1
20260508160459 13 188 1.6 16.1 0.00 0.00 0.00 36 1011.1
20260508160422 13 166 3.2 16.1 0.00 0.00 0.00 36 1011.4
20260508160353 13 180 0.0 16.1 0.00 0.00 0.00 36 1011.4
20260508160155 13 263 9.7 16.1 0.00 0.00 0.00 40 1011.4
20260508160035 13 211 1.6 14.5 0.00 0.00 0.00 38 1011.4
20260508155914 13 202 8.0 9.7 0.00 0.00 0.00 40 1011.4
20260508155824 13 133 1.6 9.7 0.00 0.00 0.00 38 1011.4
20260508155718 14 199 1.6 9.7 0.00 0.00 0.00 38 1011.4
20260508155613 14 128 3.2 9.7 0.00 0.00 0.00 40 1011.4
20260508155518 14 135 1.6 9.7 0.00 0.00 0.00 38 1011.4
20260508155408 14 99 3.2 14.5 0.00 0.00 0.00 37 1011.4
20260508155400 15 82 3.2 14.5 0.00 0.00 0.00 37 1011.4
20260508155255 14 280 1.6 16.1 0.00 0.00 0.00 36 1011.1
20260508155150 14 208 1.6 20.9 0.00 0.00 0.00 39 1011.4
20260508155044 13 188 1.6 20.9 0.00 0.00 0.00 39 1011.1
20260508154938 13 321 3.2 20.9 0.00 0.00 0.00 40 1011.1
20260508154900 13 306 1.6 20.9 0.00 0.00 0.00 38 1011.1
20260508154833 13 286 4.8 20.9 0.00 0.00 0.00 38 1011.1
20260508154727 13 206 1.6 20.9 0.00 0.00 0.00 37 1011.1
20260508154622 13 234 3.2 20.9 0.00 0.00 0.00 40 1011.1
20260508154516 13 253 9.7 20.9 0.00 0.00 0.00 40 1011.4
20260508154411 13 233 9.7 20.9 0.00 0.00 0.00 40 1011.1
20260508154355 13 172 9.7 20.9 0.00 0.00 0.00 40 1011.1
20260508154304 13 215 11.3 20.9 0.00 0.00 0.00 39 1011.4
20260508154159 13 228 16.1 20.9 0.00 0.00 0.00 37 1011.1
20260508154052 12 230 3.2 17.7 0.00 0.00 0.00 43 1011.4
20260508153948 12 143 1.6 17.7 0.00 0.00 0.00 42 1011.1
20260508153848 12 205 4.8 17.7 0.00 0.00 0.00 42 1011.4
20260508153841 12 208 6.4 17.7 0.00 0.00 0.00 41 1011.4
20260508153736 13 199 9.7 17.7 0.00 0.00 0.00 41 1011.1
20260508153630 13 233 8.0 16.1 0.00 0.00 0.00 41 1011.1
20260508153523 14 211 4.8 12.9 0.00 0.00 0.00 39 1011.1
20260508153419 14 139 3.2 12.9 0.00 0.00 0.00 37 1011.1
20260508153341 13 107 1.6 12.9 0.00 0.00 0.00 40 1011.1
20260508153313 13 160 0.0 12.9 0.00 0.00 0.00 38 1011.1
20260508153207 13 41 4.8 12.9 0.00 0.00 0.00 38 1011.4
20260508153101 13 54 4.8 12.9 0.00 0.00 0.00 39 1011.4
20260508152957 13 131 0.0 12.9 0.00 0.00 0.00 44 1011.1
20260508152943 12 122 4.8 11.3 0.00 0.00 0.00 48 1011.4
20260508152938 12 315 1.6 4.8 0.00 0.00 0.00 47 1011.4
20260508152934 12 141 0.0 12.9 0.00 0.00 0.00 48 1011.8
20260508152930 12 321 0.0 12.9 0.00 0.00 0.00 44 1011.4
20260508152916 13 154 1.6 12.9 0.00 0.00 0.00 44 1011.4
20260508152912 13 301 8.0 12.9 0.00 0.00 0.00 43 1011.4
20260508152652 13 227 3.2 12.9 0.00 0.00 0.00 44 1011.4
20260508152643 13 207 3.2 12.9 0.00 0.00 0.00 44 1011.4
20260508152635 13 326 0.0 12.9 0.00 0.00 0.00 44 1011.4
20260508152413 12 299 1.6 12.9 0.00 0.00 0.00 45 1011.4
20260508152405 12 81 3.2 12.9 0.00 0.00 0.00 46 1011.8
20260508152144 13 170 4.8 12.9 0.00 0.00 0.00 45 1011.8
20260508152139 12 3 1.6 12.9 0.00 0.00 0.00 45 1011.8
20260508152131 12 152 4.8 12.9 0.00 0.00 0.00 46 1011.8
20260508152122 12 120 6.4 12.9 0.00 0.00 0.00 45 1011.8
20260508151901 13 137 8.0 12.9 0.00 0.00 0.00 44 1011.8
20260508151852 13 127 4.8 11.3 0.00 0.00 0.00 46 1011.4
20260508151632 13 145 0.0 11.3 0.00 0.00 0.00 45 1011.4
20260508151621 12 124 3.2 11.3 0.00 0.00 0.00 47 1011.4
20260508151600 12 138 6.4 11.3 0.00 0.00 0.00 45 1011.4
20260508151338 12 55 4.8 12.9 0.00 0.00 0.00 47 1011.4
20260508151330 12 136 3.2 12.9 0.00 0.00 0.00 49 1011.4
20260508151108 12 165 3.2 12.9 0.00 0.00 0.00 50 1011.8
20260508151104 12 220 3.2 12.9 0.00 0.00 0.00 47 1011.4
20260508151055 12 271 1.6 12.9 0.00 0.00 0.00 49 1011.4
20260508150821 12 115 1.6 12.9 0.00 0.00 0.00 51 1011.8
20260508150550 12 203 8.0 12.9 0.00 0.00 0.00 49 1011.8
20260508150542 12 160 9.7 12.9 0.00 0.00 0.00 50 1011.8
20260508150533 13 225 6.4 12.9 0.00 0.00 0.00 49 1011.8
20260508150307 13 209 9.7 12.9 0.00 0.00 0.00 47 1011.8
20260508150303 13 185 9.7 11.3 0.00 0.00 0.00 49 1011.8
20260508150255 13 202 3.2 4.8 0.00 0.00 0.00 47 1011.8
20260508150028 12 290 1.6 4.8 0.00 0.00 0.00 46 1011.8
20260508150021 12 315 1.6 4.8 0.00 0.00 0.00 47 1011.4
20260508145802 13 325 3.2 4.8 0.00 0.00 0.00 47 1011.4
20260508145748 13 334 3.2 4.8 0.00 0.00 0.00 47 1011.4
20260508145523 12 107 0.0 4.8 0.00 0.00 0.00 48 1011.4
20260508145519 13 188 1.6 4.8 0.00 0.00 0.00 49 1011.8
20260508145511 12 214 1.6 4.8 0.00 0.00 0.00 48 1011.8
20260508145250 12 116 0.0 4.8 0.00 0.00 0.00 47 1011.8
20260508145231 12 139 1.6 11.3 0.00 0.00 0.00 47 1011.8
20260508145007 13 134 1.6 12.9 0.00 0.00 0.00 47 1011.8
20260508144958 12 133 0.0 12.9 0.00 0.00 0.00 47 1011.8
20260508144714 12 99 1.6 12.9 0.00 0.00 0.00 47 1011.8
20260508144607 12 80 3.2 12.9 0.00 0.00 0.00 47 1011.8
20260508144501 12 179 0.0 12.9 0.00 0.00 0.00 45 1011.8
20260508144357 12 238 1.6 12.9 0.00 0.00 0.00 44 1011.8
20260508144250 12 215 3.2 12.9 0.00 0.00 0.00 44 1011.8
20260508144235 12 199 3.2 12.9 0.00 0.00 0.00 46 1011.8
20260508144039 12 109 6.4 12.9 0.00 0.00 0.00 49 1011.8
20260508143933 12 215 6.4 11.3 0.00 0.00 0.00 49 1011.8
20260508143729 13 198 4.8 11.3 0.00 0.00 0.00 46 1011.8
20260508143723 13 176 4.8 11.3 0.00 0.00 0.00 45 1011.8
20260508143616 13 129 0.0 11.3 0.00 0.00 0.00 48 1011.8
20260508143510 13 146 1.6 11.3 0.00 0.00 0.00 46 1011.8
20260508143404 13 166 3.2 11.3 0.00 0.00 0.00 47 1011.8
20260508143258 12 65 0.0 11.3 0.00 0.00 0.00 50 1011.8
20260508143222 12 124 1.6 11.3 0.00 0.00 0.00 52 1011.8
20260508143152 12 232 1.6 12.9 0.00 0.00 0.00 52 1011.8
20260508143048 12 303 0.0 12.9 0.00 0.00 0.00 50 1012.1
20260508142941 12 220 1.6 12.9 0.00 0.00 0.00 49 1011.8
20260508142837 12 201 3.2 12.9 0.00 0.00 0.00 50 1011.8
20260508142715 12 221 4.8 12.9 0.00 0.00 0.00 51 1011.8
20260508142624 12 243 4.8 12.9 0.00 0.00 0.00 51 1012.1
20260508142519 12 298 6.4 12.9 0.00 0.00 0.00 53 1011.8
20260508142434 12 211 6.4 12.9 0.00 0.00 0.00 52 1011.8
20260508142426 12 221 6.4 12.9 0.00 0.00 0.00 54 1011.8
20260508142209 11 185 8.0 12.9 0.00 0.00 0.00 52 1011.8
20260508142203 11 212 8.0 12.9 0.00 0.00 0.00 52 1011.8
20260508142057 11 124 1.6 12.9 0.00 0.00 0.00 51 1011.8
20260508141951 11 193 0.0 12.9 0.00 0.00 0.00 50 1011.8
20260508141845 11 208 4.8 12.9 0.00 0.00 0.00 52 1011.8
20260508141740 11 195 6.4 12.9 0.00 0.00 0.00 51 1011.8
20260508141702 12 200 8.0 12.9 0.00 0.00 0.00 52 1011.8
20260508141632 12 233 9.7 12.9 0.00 0.00 0.00 52 1011.8
20260508141526 12 189 6.4 9.7 0.00 0.00 0.00 53 1011.8
20260508141420 12 218 4.8 9.7 0.00 0.00 0.00 53 1011.8
20260508141314 11 141 4.8 9.7 0.00 0.00 0.00 54 1012.1
20260508141209 11 66 1.6 9.7 0.00 0.00 0.00 53 1012.1
20260508141154 11 129 0.0 9.7 0.00 0.00 0.00 53 1012.1
20260508141104 11 231 3.2 9.7 0.00 0.00 0.00 53 1012.1
20260508140957 11 131 0.0 6.4 0.00 0.00 0.00 56 1012.1
20260508140852 11 106 3.2 6.4 0.00 0.00 0.00 56 1012.1
20260508140747 11 193 0.0 6.4 0.00 0.00 0.00 55 1012.1
20260508140648 11 257 3.2 6.4 0.00 0.00 0.00 55 1012.1
20260508140642 11 238 3.2 6.4 0.00 0.00 0.00 55 1012.1
20260508140534 12 187 4.8 6.4 0.00 0.00 0.00 55 1011.8
20260508140430 12 99 3.2 11.3 0.00 0.00 0.00 57 1012.1
20260508140324 12 118 0.0 11.3 0.00 0.00 0.00 59 1012.1
20260508140218 11 120 0.0 11.3 0.00 0.00 0.00 59 1012.4
20260508140141 11 154 1.6 11.3 0.00 0.00 0.00 58 1012.4
20260508140117 11 153 0.0 11.3 0.00 0.00 0.00 59 1012.4
20260508140006 11 301 0.0 11.3 0.00 0.00 0.00 60 1012.1
20260508135901 10 59 1.6 11.3 0.00 0.00 0.00 60 1011.8
20260508135756 10 119 0.0 11.3 0.00 0.00 0.00 61 1011.8
20260508135634 10 181 1.6 14.5 0.00 0.00 0.00 61 1012.1
20260508135544 11 216 6.4 14.5 0.00 0.00 0.00 61 1012.1
20260508135438 11 207 6.4 14.5 0.00 0.00 0.00 60 1012.1
20260508135332 11 203 3.2 14.5 0.00 0.00 0.00 58 1012.1
20260508135227 10 136 0.0 14.5 0.00 0.00 0.00 59 1011.8
20260508135128 10 346 1.6 14.5 0.00 0.00 0.00 60 1011.8
20260508135121 10 74 1.6 14.5 0.00 0.00 0.00 60 1011.8
20260508135016 10 359 1.6 14.5 0.00 0.00 0.00 59 1012.1
20260508134910 10 293 1.6 14.5 0.00 0.00 0.00 59 1012.1
20260508134805 10 280 3.2 14.5 0.00 0.00 0.00 59 1012.1
20260508134658 11 193 11.3 14.5 0.00 0.00 0.00 59 1011.8
20260508134622 11 166 6.4 9.7 0.00 0.00 0.00 57 1011.8
20260508134553 11 213 3.2 9.7 0.00 0.00 0.00 59 1011.8
20260508134448 11 218 3.2 11.3 0.00 0.00 0.00 60 1012.1
20260508134342 11 205 3.2 11.3 0.00 0.00 0.00 60 1012.1
20260508134236 10 163 1.6 11.3 0.00 0.00 0.00 62 1012.1
20260508134128 10 219 3.2 11.3 0.00 0.00 0.00 60 1012.1
20260508134114 10 195 8.0 11.3 0.00 0.00 0.00 60 1012.1
20260508134022 10 198 3.2 11.3 0.00 0.00 0.00 61 1012.1
20260508133918 10 263 0.0 11.3 0.00 0.00 0.00 62 1012.1
20260508133812 10 298 1.6 11.3 0.00 0.00 0.00 61 1012.4
20260508133706 10 248 1.6 11.3 0.00 0.00 0.00 61 1012.4
20260508133607 10 125 3.2 11.3 0.00 0.00 0.00 60 1012.1
20260508133601 10 150 3.2 11.3 0.00 0.00 0.00 61 1012.1
20260508133455 10 231 3.2 6.4 0.00 0.00 0.00 61 1012.4
20260508133349 10 203 1.6 9.7 0.00 0.00 0.00 60 1012.1
20260508133243 10 151 1.6 9.7 0.00 0.00 0.00 61 1012.1
20260508133137 10 177 4.8 9.7 0.00 0.00 0.00 61 1012.1
20260508133101 10 186 4.8 9.7 0.00 0.00 0.00 62 1012.1
20260508133032 10 208 3.2 9.7 0.00 0.00 0.00 63 1012.1
20260508132926 10 210 0.0 9.7 0.00 0.00 0.00 63 1012.4
20260508132822 10 331 1.6 9.7 0.00 0.00 0.00 63 1012.1
20260508132716 10 338 1.6 9.7 0.00 0.00 0.00 62 1012.1
20260508132610 10 175 0.0 9.7 0.00 0.00 0.00 62 1012.4
20260508132555 10 175 0.0 9.7 0.00 0.00 0.00 62 1012.4
20260508132504 10 186 3.2 9.7 0.00 0.00 0.00 63 1012.1
20260508132359 10 191 3.2 6.4 0.00 0.00 0.00 62 1012.1
20260508132253 10 117 1.6 6.4 0.00 0.00 0.00 63 1012.1
20260508132146 10 136 3.2 6.4 0.00 0.00 0.00 63 1012.1
20260508132048 10 161 1.6 6.4 0.00 0.00 0.00 63 1012.1
20260508132041 9 161 3.2 6.4 0.00 0.00 0.00 64 1012.1
20260508131935 9 153 3.2 6.4 0.00 0.00 0.00 65 1012.1
20260508131831 10 173 3.2 6.4 0.00 0.00 0.00 64 1012.1
20260508131725 10 193 6.4 6.4 0.00 0.00 0.00 63 1012.1
20260508131619 10 139 1.6 6.4 0.00 0.00 0.00 66 1012.1
20260508131542 9 139 0.0 6.4 0.00 0.00 0.00 65 1012.1
20260508131513 9 141 0.0 6.4 0.00 0.00 0.00 65 1012.4
20260508131420 9 203 1.6 6.4 0.00 0.00 0.00 65 1012.1
20260508131302 9 211 3.2 6.4 0.00 0.00 0.00 66 1012.1
20260508131156 9 284 1.6 6.4 0.00 0.00 0.00 66 1012.4
20260508131050 9 189 1.6 6.4 0.00 0.00 0.00 65 1012.4
20260508131035 9 205 3.2 6.4 0.00 0.00 0.00 65 1012.1
20260508130945 9 137 1.6 6.4 0.00 0.00 0.00 64 1012.1
20260508130839 9 206 3.2 6.4 0.00 0.00 0.00 65 1012.4
20260508130733 9 187 0.0 6.4 0.00 0.00 0.00 65 1012.1
20260508130628 10 206 3.2 6.4 0.00 0.00 0.00 64 1012.4
20260508130529 10 145 3.2 4.8 0.00 0.00 0.00 66 1012.1
20260508130523 10 128 1.6 4.8 0.00 0.00 0.00 66 1012.1
20260508130416 10 210 1.6 4.8 0.00 0.00 0.00 65 1012.1
20260508130312 10 184 1.6 4.8 0.00 0.00 0.00 65 1012.4
20260508130206 9 144 0.0 4.8 0.00 0.00 0.00 66 1012.1
20260508130103 9 129 0.0 4.8 0.00 0.00 0.00 67 1012.1
20260508130022 9 101 1.6 4.8 0.00 0.00 0.00 67 1012.1
20260508125954 8 108 0.0 4.8 0.00 0.00 0.00 67 1012.1
20260508125848 8 125 1.6 4.8 0.00 0.00 0.00 68 1012.1
20260508125744 8 131 1.6 4.8 0.00 0.00 0.00 69 1012.4
20260508125638 8 151 3.2 4.8 0.00 0.00 0.00 69 1012.1
20260508125515 8 116 3.2 4.8 0.00 0.00 0.00 68 1012.1
20260508125426 8 126 1.6 4.8 0.00 0.00 0.00 69 1012.1
20260508125320 8 125 3.2 4.8 0.00 0.00 0.00 69 1011.8
20260508125214 8 142 3.2 4.8 0.00 0.00 0.00 69 1012.1
20260508125109 8 124 3.2 3.2 0.00 0.00 0.00 69 1012.1
20260508125010 8 136 1.6 3.2 0.00 0.00 0.00 69 1012.1
20260508125002 8 141 1.6 3.2 0.00 0.00 0.00 70 1012.1
20260508124858 8 141 1.6 3.2 0.00 0.00 0.00 70 1011.8
20260508124752 8 125 3.2 3.2 0.00 0.00 0.00 71 1012.1
20260508124646 8 142 3.2 3.2 0.00 0.00 0.00 70 1011.8
20260508124547 7 204 3.2 6.4 0.00 0.00 0.00 73 1012.1
20260508124542 8 145 1.6 3.2 0.00 0.00 0.00 71 1012.1
20260508124534 7 207 3.2 4.8 0.00 0.00 0.00 74 1012.1
20260508124530 7 189 1.6 6.4 0.00 0.00 0.00 72 1011.8
20260508124524 8 152 0.0 3.2 0.00 0.00 0.00 72 1012.1
20260508124519 8 202 0.0 3.2 0.00 0.00 0.00 71 1012.1
20260508124511 7 205 0.0 3.2 0.00 0.00 0.00 71 1012.1
20260508124246 7 177 3.2 3.2 0.00 0.00 0.00 71 1012.1
20260508124237 7 125 0.0 6.4 0.00 0.00 0.00 71 1012.1
20260508124016 7 147 0.0 6.4 0.00 0.00 0.00 71 1011.8
20260508124006 7 165 1.6 6.4 0.00 0.00 0.00 71 1011.8
20260508124002 7 147 1.6 6.4 0.00 0.00 0.00 72 1012.1
20260508123953 7 131 0.0 6.4 0.00 0.00 0.00 72 1012.1
20260508123730 7 170 0.0 6.4 0.00 0.00 0.00 72 1011.8
20260508123722 7 164 0.0 6.4 0.00 0.00 0.00 73 1012.1
20260508123459 7 189 1.6 6.4 0.00 0.00 0.00 72 1012.1
20260508123450 7 185 1.6 6.4 0.00 0.00 0.00 72 1011.8
20260508123441 7 210 3.2 6.4 0.00 0.00 0.00 72 1012.1
20260508123218 7 183 3.2 6.4 0.00 0.00 0.00 72 1012.1
20260508123210 7 214 3.2 6.4 0.00 0.00 0.00 73 1012.1
20260508122947 7 211 3.2 6.4 0.00 0.00 0.00 73 1012.1
20260508122939 7 217 3.2 4.8 0.00 0.00 0.00 73 1012.1
20260508122718 6 211 3.2 4.8 0.00 0.00 0.00 75 1012.1
20260508122714 7 238 3.2 4.8 0.00 0.00 0.00 73 1012.1
20260508122706 7 207 1.6 4.8 0.00 0.00 0.00 73 1011.8
20260508122657 7 196 3.2 4.8 0.00 0.00 0.00 75 1012.1
20260508122430 7 181 1.6 4.8 0.00 0.00 0.00 75 1012.1
20260508122422 7 186 1.6 4.8 0.00 0.00 0.00 75 1011.8
20260508122159 6 197 1.6 4.8 0.00 0.00 0.00 75 1012.1
20260508122150 6 183 1.6 4.8 0.00 0.00 0.00 75 1011.8
20260508121922 6 186 3.2 4.8 0.00 0.00 0.00 75 1012.1
20260508121816 6 204 1.6 4.8 0.00 0.00 0.00 76 1011.8
20260508121711 6 202 3.2 4.8 0.00 0.00 0.00 75 1012.1
20260508121655 6 177 3.2 4.8 0.00 0.00 0.00 76 1012.1
20260508121651 6 185 1.6 4.8 0.00 0.00 0.00 76 1011.8
20260508121643 6 189 1.6 4.8 0.00 0.00 0.00 76 1011.8
20260508121354 6 165 3.2 3.2 0.00 0.00 0.00 76 1012.1
20260508121249 6 173 0.0 3.2 0.00 0.00 0.00 77 1011.8
20260508121142 6 206 3.2 3.2 0.00 0.00 0.00 77 1011.8
20260508121037 6 188 1.6 3.2 0.00 0.00 0.00 78 1011.8
20260508120930 6 186 0.0 3.2 0.00 0.00 0.00 78 1011.8
20260508120917 6 187 0.0 3.2 0.00 0.00 0.00 78 1011.8
20260508120912 6 189 1.6 3.2 0.00 0.00 0.00 78 1011.8
20260508120908 6 190 1.6 3.2 0.00 0.00 0.00 78 1011.8
20260508120900 6 188 0.0 3.2 0.00 0.00 0.00 78 1011.8
20260508120637 6 188 1.6 3.2 0.00 0.00 0.00 77 1011.8
20260508120628 6 199 1.6 3.2 0.00 0.00 0.00 77 1011.8
20260508120403 6 189 1.6 3.2 0.00 0.00 0.00 78 1011.8
20260508120258 6 200 1.6 3.2 0.00 0.00 0.00 78 1011.8
20260508120152 6 203 3.2 3.2 0.00 0.00 0.00 78 1011.8
20260508120057 6 193 1.6 3.2 0.00 0.00 0.00 78 1011.8
20260508115939 5 199 0.0 3.2 0.00 0.00 0.00 79 1011.8
20260508115901 5 183 1.6 3.2 0.00 0.00 0.00 79 1011.8
20260508115834 5 199 1.6 3.2 0.00 0.00 0.00 79 1011.8
20260508115728 5 195 1.6 3.2 0.00 0.00 0.00 79 1011.8
20260508115622 5 194 1.6 3.2 0.00 0.00 0.00 79 1011.8
20260508115516 5 201 1.6 3.2 0.00 0.00 0.00 80 1011.8
20260508115410 5 193 1.6 3.2 0.00 0.00 0.00 80 1011.8
20260508115355 5 193 1.6 3.2 0.00 0.00 0.00 80 1011.8
20260508115306 5 212 3.2 3.2 0.00 0.00 0.00 81 1011.8
20260508115159 5 199 1.6 3.2 0.00 0.00 0.00 81 1011.8
20260508115051 5 200 1.6 3.2 0.00 0.00 0.00 82 1011.8
20260508114945 5 200 1.6 1.6 0.00 0.00 0.00 83 1011.4
20260508114846 4 201 0.0 1.6 0.00 0.00 0.00 84 1011.4
20260508114840 4 201 0.0 1.6 0.00 0.00 0.00 84 1011.8
20260508114734 4 202 1.6 1.6 0.00 0.00 0.00 85 1011.8
20260508114628 4 203 0.0 1.6 0.00 0.00 0.00 85 1011.4
20260508114523 3 207 0.0 0.0 0.00 0.00 0.00 86 1011.4
20260508114417 3 226 0.0 0.0 0.00 0.00 0.00 87 1011.4
20260508114339 3 284 0.0 0.0 0.00 0.00 0.00 88 1011.4
20260508114312 3 6 0.0 0.0 0.00 0.00 0.00 88 1011.4
20260508114206 3 6 0.0 0.0 0.00 0.00 0.00 89 1011.4
20260508114100 3 6 0.0 0.0 0.00 0.00 0.00 90 1011.4
20260508113954 3 6 0.0 0.0 0.00 0.00 0.00 91 1011.4
20260508113833 3 7 0.0 0.0 0.00 0.00 0.00 91 1011.4
20260508113743 3 7 0.0 0.0 0.00 0.00 0.00 92 1011.4
20260508113637 3 7 0.0 0.0 0.00 0.00 0.00 92 1011.4
20260508113531 2 6 0.0 0.0 0.00 0.00 0.00 92 1011.8
20260508113426 2 6 0.0 0.0 0.00 0.00 0.00 92 1011.4
20260508113320 2 6 0.0 0.0 0.00 0.00 0.00 92 1011.4
20260508113215 2 6 0.0 0.0 0.00 0.00 0.00 92 1011.4
20260508113109 2 6 0.0 0.0 0.00 0.00 0.00 92 1011.4
20260508113005 2 6 0.0 0.0 0.00 0.00 0.00 92 1011.1
20260508112858 2 6 0.0 0.0 0.00 0.00 0.00 92 1011.4
20260508112821 2 6 0.0 0.0 0.00 0.00 0.00 92 1011.4
20260508112752 2 6 0.0 0.0 0.00 0.00 0.00 92 1011.4
20260508112646 2 6 0.0 0.0 0.00 0.00 0.00 92 1011.4
20260508112541 2 6 0.0 0.0 0.00 0.00 0.00 92 1011.4
20260508112435 2 6 0.0 0.0 0.00 0.00 0.00 92 1011.4
20260508112314 2 6 0.0 0.0 0.00 0.00 0.00 92 1011.4
20260508112224 2 6 0.0 0.0 0.00 0.00 0.00 92 1011.4
20260508112118 2 6 0.0 0.0 0.00 0.00 0.00 92 1011.4
20260508112012 2 6 0.0 0.0 0.00 0.00 0.00 92 1011.4
20260508111907 2 6 0.0 0.0 0.00 0.00 0.00 92 1011.1
20260508111807 2 6 0.0 0.0 0.00 0.00 0.00 92 1011.4
20260508111802 2 6 0.0 0.0 0.00 0.00 0.00 92 1011.4
20260508111653 2 6 0.0 0.0 0.00 0.00 0.00 92 1011.4
20260508111550 2 6 0.0 0.0 0.00 0.00 0.00 92 1011.4
20260508111441 2 6 0.0 0.0 0.00 0.00 0.00 92 1011.1
20260508111335 2 6 0.0 0.0 0.00 0.00 0.00 92 1011.1
20260508111230 2 6 0.0 0.0 0.00 0.00 0.00 92 1011.1
20260508111124 2 6 0.0 0.0 0.00 0.00 0.00 92 1011.1
20260508111018 2 6 0.0 0.0 0.00 0.00 0.00 92 1011.4
20260508110913 2 6 0.0 0.0 0.00 0.00 0.00 92 1011.4
20260508110810 2 6 0.0 0.0 0.00 0.00 0.00 92 1011.4
20260508110752 2 6 0.0 0.0 0.00 0.00 0.00 93 1011.4
20260508110701 2 6 0.0 0.0 0.00 0.00 0.00 92 1011.4
20260508110556 2 6 0.0 0.0 0.00 0.00 0.00 92 1011.4
20260508110450 2 6 0.0 0.0 0.00 0.00 0.00 93 1011.4
20260508110345 1 6 0.0 0.0 0.00 0.00 0.00 93 1011.4
20260508110239 1 6 0.0 0.0 0.00 0.00 0.00 93 1011.4
20260508110133 1 6 0.0 0.0 0.00 0.00 0.00 93 1011.4
20260508110027 1 6 0.0 0.0 0.00 0.00 0.00 93 1011.4
20260508105922 1 6 0.0 0.0 0.00 0.00 0.00 92 1011.4
20260508105817 1 6 0.0 0.0 0.00 0.00 0.00 92 1011.4
20260508105711 1 6 0.0 0.0 0.00 0.00 0.00 92 1011.4
20260508105602 1 6 0.0 0.0 0.00 0.00 0.00 92 1011.4
20260508105458 1 6 0.0 0.0 0.00 0.00 0.00 92 1011.4
20260508105352 1 6 0.0 0.0 0.00 0.00 0.00 92 1011.4
20260508105231 1 6 0.0 0.0 0.00 0.00 0.00 92 1011.4
20260508105140 1 6 0.0 0.0 0.00 0.00 0.00 92 1011.1
20260508105035 1 6 0.0 0.0 0.00 0.00 0.00 92 1011.1
20260508104929 1 6 0.0 0.0 0.00 0.00 0.00 92 1011.4
20260508104823 1 6 0.0 0.0 0.00 0.00 0.00 92 1011.4
20260508104718 1 6 0.0 0.0 0.00 0.00 0.00 92 1011.4
20260508104612 1 6 0.0 0.0 0.00 0.00 0.00 92 1011.4
20260508104506 1 6 0.0 0.0 0.00 0.00 0.00 92 1011.4
20260508104400 1 6 0.0 0.0 0.00 0.00 0.00 92 1011.4
20260508104225 1 6 0.0 0.0 0.00 0.00 0.00 92 1011.8
20260508104119 1 6 0.0 0.0 0.00 0.00 0.00 92 1011.8
20260508104013 1 6 0.0 0.0 0.00 0.00 0.00 92 1011.4
20260508103907 1 6 0.0 0.0 0.00 0.00 0.00 92 1011.4
20260508103801 1 6 0.0 0.0 0.00 0.00 0.00 92 1011.4
20260508103713 1 6 0.0 0.0 0.00 0.00 0.00 92 1011.4
20260508103656 1 6 0.0 0.0 0.00 0.00 0.00 92 1011.4
20260508103549 1 6 0.0 0.0 0.00 0.00 0.00 91 1011.4
20260508103443 1 6 0.0 0.0 0.00 0.00 0.00 91 1011.4
20260508103338 1 6 0.0 0.0 0.00 0.00 0.00 91 1011.4
20260508103205 1 6 0.0 0.0 0.00 0.00 0.00 91 1011.4
20260508103126 1 6 0.0 0.0 0.00 0.00 0.00 91 1011.4
20260508103021 1 6 0.0 0.0 0.00 0.00 0.00 91 1011.4
20260508102915 1 6 0.0 0.0 0.00 0.00 0.00 91 1011.4
20260508102810 1 6 0.0 0.0 0.00 0.00 0.00 91 1011.1
20260508102704 1 6 0.0 0.0 0.00 0.00 0.00 91 1011.1
20260508102558 1 6 0.0 0.0 0.00 0.00 0.00 91 1011.8
20260508102453 1 6 0.0 0.0 0.00 0.00 0.00 91 1011.8
20260508102339 1 6 0.0 0.0 0.00 0.00 0.00 91 1011.4
20260508102233 1 6 0.0 0.0 0.00 0.00 0.00 91 1011.4
20260508102156 1 6 0.0 0.0 0.00 0.00 0.00 91 1011.4
20260508102127 1 6 0.0 0.0 0.00 0.00 0.00 91 1011.4
20260508102021 1 6 0.0 0.0 0.00 0.00 0.00 91 1011.4
20260508101916 1 6 0.0 0.0 0.00 0.00 0.00 90 1011.4
20260508101811 1 6 0.0 0.0 0.00 0.00 0.00 90 1011.4
20260508101705 1 6 0.0 0.0 0.00 0.00 0.00 90 1011.4
20260508101650 1 6 0.0 0.0 0.00 0.00 0.00 90 1011.4
20260508101558 1 6 0.0 0.0 0.00 0.00 0.00 90 1011.4
20260508101454 1 6 0.0 0.0 0.00 0.00 0.00 90 1011.8
20260508101348 1 6 0.0 0.0 0.00 0.00 0.00 90 1011.4
20260508101242 1 6 0.0 0.0 0.00 0.00 0.00 90 1011.8
20260508101144 1 6 0.0 0.0 0.00 0.00 0.00 90 1011.8
20260508101137 1 6 0.0 0.0 0.00 0.00 0.00 90 1011.4
20260508101031 1 6 0.0 0.0 0.00 0.00 0.00 90 1011.4
20260508100925 1 6 0.0 0.0 0.00 0.00 0.00 90 1011.4
20260508100820 1 6 0.0 0.0 0.00 0.00 0.00 90 1011.4
20260508100715 1 6 0.0 0.0 0.00 0.00 0.00 90 1011.4
20260508100607 1 6 0.0 0.0 0.00 0.00 0.00 90 1011.4
20260508100501 1 6 0.0 0.0 0.00 0.00 0.00 90 1011.4
20260508100356 1 6 0.0 0.0 0.00 0.00 0.00 89 1011.4
20260508100250 1 6 0.0 0.0 0.00 0.00 0.00 89 1011.1
20260508100144 1 6 0.0 0.0 0.00 0.00 0.00 89 1011.1
20260508100129 2 6 0.0 0.0 0.00 0.00 0.00 89 1011.1
20260508100038 2 6 0.0 0.0 0.00 0.00 0.00 89 1011.4
20260508095932 2 6 0.0 0.0 0.00 0.00 0.00 89 1011.4
20260508095826 2 6 0.0 0.0 0.00 0.00 0.00 89 1011.1
20260508095721 2 6 0.0 0.0 0.00 0.00 0.00 89 1011.4
20260508095615 2 6 0.0 0.0 0.00 0.00 0.00 89 1011.4
20260508095511 2 6 0.0 0.0 0.00 0.00 0.00 89 1011.4
20260508095407 2 6 0.0 0.0 0.00 0.00 0.00 89 1011.4
20260508095258 2 6 0.0 0.0 0.00 0.00 0.00 89 1011.1
20260508095152 2 6 0.0 0.0 0.00 0.00 0.00 89 1011.4
20260508095116 2 6 0.0 0.0 0.00 0.00 0.00 89 1011.4
20260508095048 2 6 0.0 0.0 0.00 0.00 0.00 89 1011.4
20260508094955 2 6 0.0 0.0 0.00 0.00 0.00 89 1011.4
20260508094836 2 6 0.0 0.0 0.00 0.00 0.00 89 1011.4
20260508094730 2 6 0.0 0.0 0.00 0.00 0.00 89 1011.4
20260508094610 2 6 0.0 0.0 0.00 0.00 0.00 89 1011.4
20260508094518 2 6 0.0 0.0 0.00 0.00 0.00 89 1011.4
20260508094414 2 7 0.0 0.0 0.00 0.00 0.00 89 1011.4
20260508094308 2 7 0.0 0.0 0.00 0.00 0.00 89 1011.8
20260508094203 2 7 0.0 0.0 0.00 0.00 0.00 89 1011.8
20260508094103 2 7 0.0 0.0 0.00 0.00 0.00 88 1011.8
20260508094055 2 7 0.0 0.0 0.00 0.00 0.00 88 1011.8
20260508093949 2 7 0.0 0.0 0.00 0.00 0.00 88 1011.4
20260508093844 2 7 0.0 0.0 0.00 0.00 0.00 88 1011.8
20260508093739 2 7 0.0 0.0 0.00 0.00 0.00 88 1011.8
20260508093633 2 7 0.0 0.0 0.00 0.00 0.00 88 1011.8
20260508093527 2 7 0.0 0.0 0.00 0.00 0.00 88 1011.8
20260508093422 2 7 0.0 0.0 0.00 0.00 0.00 88 1011.8
20260508093315 2 7 0.0 0.0 0.00 0.00 0.00 88 1011.8
20260508093210 2 7 0.0 0.0 0.00 0.00 0.00 88 1011.4
20260508093049 2 7 0.0 0.0 0.00 0.00 0.00 88 1011.8
20260508092959 2 7 0.0 0.0 0.00 0.00 0.00 88 1011.4
20260508092904 2 7 0.0 0.0 0.00 0.00 0.00 88 1011.4
20260508092759 2 7 0.0 0.0 0.00 0.00 0.00 88 1011.4
20260508092653 2 7 0.0 0.0 0.00 0.00 0.00 88 1011.4
20260508092547 2 7 0.0 0.0 0.00 0.00 0.00 88 1011.4
20260508092441 2 7 0.0 0.0 0.00 0.00 0.00 88 1011.8
20260508092336 2 7 0.0 0.0 0.00 0.00 0.00 88 1011.4
20260508092231 2 7 0.0 0.0 0.00 0.00 0.00 88 1011.8
20260508092116 2 7 0.0 0.0 0.00 0.00 0.00 88 1011.8
20260508092050 2 7 0.0 0.0 0.00 0.00 0.00 88 1011.8
20260508092011 2 7 0.0 0.0 0.00 0.00 0.00 88 1011.4
20260508091905 2 7 0.0 0.0 0.00 0.00 0.00 87 1011.8
20260508091759 2 7 0.0 0.0 0.00 0.00 0.00 87 1011.4
20260508091735 4 153 0.0 1.6 0.00 0.00 0.00 81 1011.1
20260508091731 3 7 0.0 1.6 0.00 0.00 0.00 84 1011.4
20260508091726 2 7 0.0 0.0 0.00 0.00 0.00 86 1011.4
20260508091722 3 7 0.0 0.0 0.00 0.00 0.00 86 1011.8
20260508091718 2 7 0.0 0.0 0.00 0.00 0.00 87 1011.4
20260508091703 2 7 0.0 0.0 0.00 0.00 0.00 87 1011.8
20260508091439 2 7 0.0 0.0 0.00 0.00 0.00 87 1011.8
20260508091431 2 7 0.0 0.0 0.00 0.00 0.00 87 1011.8
20260508091410 2 7 0.0 0.0 0.00 0.00 0.00 87 1011.4
20260508091401 2 7 0.0 0.0 0.00 0.00 0.00 87 1011.8
20260508091136 3 7 0.0 0.0 0.00 0.00 0.00 86 1011.4
20260508090914 3 6 0.0 1.6 0.00 0.00 0.00 86 1011.8
20260508090911 3 7 0.0 0.0 0.00 0.00 0.00 86 1011.8
20260508090902 3 7 0.0 0.0 0.00 0.00 0.00 86 1011.8
20260508090853 3 7 0.0 0.0 0.00 0.00 0.00 86 1011.4
20260508090842 3 7 0.0 0.0 0.00 0.00 0.00 86 1011.8
20260508090623 3 7 0.0 0.0 0.00 0.00 0.00 86 1011.4
20260508090403 3 7 0.0 1.6 0.00 0.00 0.00 86 1011.4
20260508090355 3 7 0.0 1.6 0.00 0.00 0.00 86 1011.8
20260508090346 3 6 0.0 1.6 0.00 0.00 0.00 86 1011.4
20260508090125 3 6 0.0 1.6 0.00 0.00 0.00 86 1011.8
20260508090103 3 6 0.0 1.6 0.00 0.00 0.00 86 1011.8
20260508085836 3 6 0.0 1.6 0.00 0.00 0.00 86 1011.8
20260508085827 3 6 0.0 1.6 0.00 0.00 0.00 86 1011.8
20260508085551 3 6 0.0 1.6 0.00 0.00 0.00 85 1011.8
20260508085547 3 6 0.0 1.6 0.00 0.00 0.00 85 1011.8
20260508085538 3 6 1.6 1.6 0.00 0.00 0.00 85 1011.4
20260508085315 3 7 0.0 1.6 0.00 0.00 0.00 84 1011.8
20260508085307 3 7 0.0 1.6 0.00 0.00 0.00 84 1011.8
20260508085255 3 7 0.0 1.6 0.00 0.00 0.00 84 1011.4
20260508085036 3 7 0.0 1.6 0.00 0.00 0.00 84 1011.4
20260508084815 3 7 0.0 1.6 0.00 0.00 0.00 83 1011.8
20260508084806 3 7 0.0 1.6 0.00 0.00 0.00 83 1011.8
20260508084757 3 7 0.0 1.6 0.00 0.00 0.00 83 1011.8
20260508084532 3 7 0.0 1.6 0.00 0.00 0.00 83 1011.8
20260508084528 4 7 0.0 1.6 0.00 0.00 0.00 82 1011.8
20260508084520 4 7 1.6 1.6 0.00 0.00 0.00 82 1011.8
20260508084252 4 46 1.6 1.6 0.00 0.00 0.00 81 1011.8
20260508084243 4 153 0.0 1.6 0.00 0.00 0.00 81 1011.8
20260508084235 4 153 0.0 0.0 0.00 0.00 0.00 81 1011.4
20260508084009 4 153 0.0 0.0 0.00 0.00 0.00 81 1011.4
20260508084006 4 153 0.0 0.0 0.00 0.00 0.00 81 1011.8
20260508083957 4 153 0.0 0.0 0.00 0.00 0.00 81 1011.8
20260508083733 4 153 0.0 0.0 0.00 0.00 0.00 81 1011.4
20260508083724 4 153 0.0 1.6 0.00 0.00 0.00 81 1011.4
20260508083713 4 153 0.0 1.6 0.00 0.00 0.00 81 1011.1
20260508083355 4 153 0.0 1.6 0.00 0.00 0.00 80 1011.4
20260508083248 4 153 0.0 1.6 0.00 0.00 0.00 80 1011.4
20260508083141 4 153 0.0 1.6 0.00 0.00 0.00 80 1011.4
20260508083035 4 153 0.0 1.6 0.00 0.00 0.00 81 1011.8
20260508082930 4 153 0.0 1.6 0.00 0.00 0.00 81 1011.8
20260508082824 4 153 0.0 1.6 0.00 0.00 0.00 82 1011.8
20260508082719 4 153 0.0 1.6 0.00 0.00 0.00 82 1011.8
20260508082614 4 153 0.0 1.6 0.00 0.00 0.00 82 1011.8
20260508082508 4 154 0.0 0.0 0.00 0.00 0.00 82 1011.8
20260508082442 4 154 0.0 1.6 0.00 0.00 0.00 82 1011.8
20260508082403 4 154 0.0 1.6 0.00 0.00 0.00 82 1011.8
20260508082257 4 154 0.0 1.6 0.00 0.00 0.00 82 1011.8
20260508082152 4 154 0.0 1.6 0.00 0.00 0.00 82 1011.8
20260508082045 4 153 0.0 1.6 0.00 0.00 0.00 82 1011.8
20260508081940 4 153 0.0 1.6 0.00 0.00 0.00 81 1011.8
20260508081833 4 153 0.0 1.6 0.00 0.00 0.00 81 1011.8
20260508081729 4 153 0.0 1.6 0.00 0.00 0.00 81 1011.8
20260508081623 4 153 0.0 1.6 0.00 0.00 0.00 81 1011.8
20260508081517 4 153 0.0 1.6 0.00 0.00 0.00 81 1011.8
20260508081429 4 139 0.0 1.6 0.00 0.00 0.00 81 1011.8
20260508081412 4 50 0.0 1.6 0.00 0.00 0.00 81 1011.8
20260508081307 5 49 0.0 1.6 0.00 0.00 0.00 81 1011.8
20260508081200 5 49 0.0 1.6 0.00 0.00 0.00 80 1011.8
20260508081054 4 52 0.0 1.6 0.00 0.00 0.00 80 1011.8
20260508080923 5 52 1.6 1.6 0.00 0.00 0.00 80 1011.8
20260508080845 5 67 1.6 1.6 0.00 0.00 0.00 80 1011.8
20260508080738 5 69 0.0 3.2 0.00 0.00 0.00 80 1011.4
20260508080632 5 96 1.6 3.2 0.00 0.00 0.00 80 1011.4
20260508080526 5 172 0.0 3.2 0.00 0.00 0.00 80 1011.8
20260508080420 5 172 0.0 3.2 0.00 0.00 0.00 80 1011.8
20260508080315 5 210 0.0 4.8 0.00 0.00 0.00 80 1011.8
20260508080210 5 233 0.0 4.8 0.00 0.00 0.00 80 1011.8
20260508080105 5 220 0.0 4.8 0.00 0.00 0.00 80 1011.4
20260508075958 5 190 0.0 4.8 0.00 0.00 0.00 80 1011.4
20260508075909 5 189 0.0 4.8 0.00 0.00 0.00 81 1011.8
20260508075853 4 189 1.6 4.8 0.00 0.00 0.00 81 1011.8
20260508075747 4 146 0.0 4.8 0.00 0.00 0.00 82 1011.4
20260508075641 4 158 1.6 4.8 0.00 0.00 0.00 82 1011.4
20260508075535 4 253 1.6 4.8 0.00 0.00 0.00 82 1011.8
20260508075429 4 262 1.6 4.8 0.00 0.00 0.00 83 1011.4
20260508075404 4 311 3.2 4.8 0.00 0.00 0.00 83 1011.4
20260508075324 4 324 3.2 4.8 0.00 0.00 0.00 83 1011.4
20260508075218 4 279 3.2 4.8 0.00 0.00 0.00 83 1011.4
20260508075114 4 98 0.0 4.8 0.00 0.00 0.00 83 1011.4
20260508075007 4 98 3.2 4.8 0.00 0.00 0.00 83 1011.1
20260508074902 4 109 1.6 4.8 0.00 0.00 0.00 82 1011.1
20260508074756 4 99 1.6 4.8 0.00 0.00 0.00 82 1011.1
20260508074651 4 98 3.2 4.8 0.00 0.00 0.00 82 1011.1
20260508074545 4 99 3.2 4.8 0.00 0.00 0.00 82 1011.1
20260508074439 4 129 0.0 0.0 0.00 0.00 0.00 82 1011.1
20260508074350 4 147 0.0 0.0 0.00 0.00 0.00 82 1011.1
20260508074323 4 147 0.0 0.0 0.00 0.00 0.00 82 1011.4
20260508074217 4 146 0.0 0.0 0.00 0.00 0.00 82 1011.4
20260508074112 4 145 0.0 0.0 0.00 0.00 0.00 82 1011.4
20260508074006 4 141 0.0 0.0 0.00 0.00 0.00 82 1011.1
20260508073833 4 122 0.0 0.0 0.00 0.00 0.00 82 1011.1
20260508073754 4 122 0.0 0.0 0.00 0.00 0.00 82 1011.1
20260508073648 4 122 0.0 0.0 0.00 0.00 0.00 82 1011.1
20260508073544 4 121 0.0 0.0 0.00 0.00 0.00 81 1011.8
20260508073438 4 122 0.0 0.0 0.00 0.00 0.00 81 1011.1
20260508073332 5 122 0.0 0.0 0.00 0.00 0.00 81 1011.4
20260508073226 5 122 0.0 0.0 0.00 0.00 0.00 81 1011.4
20260508073120 5 121 0.0 0.0 0.00 0.00 0.00 81 1011.4
20260508073014 5 121 0.0 0.0 0.00 0.00 0.00 81 1011.4
20260508072908 5 121 0.0 0.0 0.00 0.00 0.00 81 1011.4
20260508072820 5 121 0.0 0.0 0.00 0.00 0.00 81 1011.4
20260508072802 5 121 0.0 0.0 0.00 0.00 0.00 81 1011.4
20260508072656 5 121 0.0 0.0 0.00 0.00 0.00 81 1011.4
20260508072551 5 121 0.0 0.0 0.00 0.00 0.00 81 1011.4
20260508072445 5 121 0.0 0.0 0.00 0.00 0.00 80 1011.8
20260508072313 5 121 0.0 0.0 0.00 0.00 0.00 80 1011.8
20260508072234 5 121 0.0 0.0 0.00 0.00 0.00 80 1011.8
20260508072129 5 121 0.0 0.0 0.00 0.00 0.00 80 1011.8
20260508072022 5 121 0.0 0.0 0.00 0.00 0.00 80 1011.4
20260508071918 5 121 0.0 0.0 0.00 0.00 0.00 80 1011.8
20260508071812 5 122 0.0 0.0 0.00 0.00 0.00 80 1011.4
20260508071706 5 122 0.0 0.0 0.00 0.00 0.00 80 1011.8
20260508071600 5 122 0.0 0.0 0.00 0.00 0.00 80 1011.8
20260508071454 5 122 0.0 0.0 0.00 0.00 0.00 80 1011.8
20260508071349 5 122 0.0 0.0 0.00 0.00 0.00 80 1011.4
20260508071301 5 121 0.0 0.0 0.00 0.00 0.00 80 1011.8
20260508071243 5 121 0.0 0.0 0.00 0.00 0.00 80 1011.8
20260508071137 5 122 0.0 0.0 0.00 0.00 0.00 80 1011.4
20260508071032 5 122 0.0 0.0 0.00 0.00 0.00 80 1011.8
20260508070927 5 120 0.0 0.0 0.00 0.00 0.00 80 1011.8
20260508070834 5 122 0.0 0.0 0.00 0.00 0.00 81 1011.4
20260508070755 5 106 0.0 0.0 0.00 0.00 0.00 81 1011.4
20260508070715 5 44 0.0 0.0 0.00 0.00 0.00 81 1011.4
20260508070623 5 41 0.0 0.0 0.00 0.00 0.00 81 1011.8
20260508070504 5 42 0.0 0.0 0.00 0.00 0.00 81 1011.8
20260508070358 5 41 0.0 0.0 0.00 0.00 0.00 81 1011.8
20260508070253 5 41 0.0 0.0 0.00 0.00 0.00 81 1011.8
20260508070147 5 41 0.0 0.0 0.00 0.00 0.00 81 1011.4
20260508070041 5 41 0.0 0.0 0.00 0.00 0.00 80 1011.8
20260508065935 5 34 0.0 0.0 0.00 0.00 0.00 80 1011.8
20260508065829 5 33 0.0 0.0 0.00 0.00 0.00 81 1011.8
20260508065742 5 33 0.0 0.0 0.00 0.00 0.00 80 1011.8
20260508065724 5 33 0.0 0.0 0.00 0.00 0.00 81 1012.1
20260508065618 5 33 0.0 0.0 0.00 0.00 0.00 81 1012.1
20260508065513 5 33 0.0 0.0 0.00 0.00 0.00 81 1012.1
20260508065420 5 33 0.0 0.0 0.00 0.00 0.00 81 1011.8
20260508065301 5 33 0.0 0.0 0.00 0.00 0.00 81 1011.8
20260508065235 5 34 0.0 0.0 0.00 0.00 0.00 81 1011.8
20260508065208 5 34 0.0 0.0 0.00 0.00 0.00 81 1011.8
20260508065050 5 33 0.0 0.0 0.00 0.00 0.00 81 1011.8
20260508064944 5 34 0.0 0.0 0.00 0.00 0.00 81 1011.8
20260508064838 5 34 0.0 0.0 0.00 0.00 0.00 81 1011.8
20260508064733 5 34 0.0 0.0 0.00 0.00 0.00 81 1011.8
20260508064627 5 34 0.0 0.0 0.00 0.00 0.00 81 1011.8
20260508064523 5 34 0.0 0.0 0.00 0.00 0.00 80 1011.8
20260508064416 5 34 0.0 0.0 0.00 0.00 0.00 80 1011.8
20260508064311 5 34 0.0 0.0 0.00 0.00 0.00 80 1011.8
20260508064222 5 34 0.0 0.0 0.00 0.00 0.00 80 1011.8
20260508064205 5 34 0.0 0.0 0.00 0.00 0.00 80 1011.8
20260508064059 5 34 0.0 0.0 0.00 0.00 0.00 80 1011.8
20260508063954 5 34 0.0 0.0 0.00 0.00 0.00 80 1011.8
20260508063849 5 34 0.0 0.0 0.00 0.00 0.00 80 1011.8
20260508063743 5 37 0.0 0.0 0.00 0.00 0.00 80 1011.8
20260508063717 5 41 0.0 0.0 0.00 0.00 0.00 80 1011.8
20260508063637 5 41 0.0 0.0 0.00 0.00 0.00 80 1011.8
20260508063532 5 41 0.0 0.0 0.00 0.00 0.00 80 1011.8
20260508063426 5 41 0.0 0.0 0.00 0.00 0.00 80 1011.8
20260508063320 5 41 0.0 0.0 0.00 0.00 0.00 80 1011.4
20260508063215 5 41 0.0 0.0 0.00 0.00 0.00 80 1011.8
20260508063121 5 41 0.0 0.0 0.00 0.00 0.00 80 1011.8
20260508063005 5 41 0.0 0.0 0.00 0.00 0.00 80 1011.8
20260508062858 5 40 0.0 0.0 0.00 0.00 0.00 80 1011.8
20260508062752 5 41 0.0 0.0 0.00 0.00 0.00 80 1011.8
20260508062703 5 41 0.0 0.0 0.00 0.00 0.00 80 1011.8
20260508062646 5 40 0.0 0.0 0.00 0.00 0.00 80 1011.8
20260508062539 5 54 0.0 0.0 0.00 0.00 0.00 80 1011.8
20260508062433 5 48 0.0 0.0 0.00 0.00 0.00 80 1011.8
20260508062342 5 36 0.0 0.0 0.00 0.00 0.00 80 1011.8
20260508062222 5 31 0.0 0.0 0.00 0.00 0.00 79 1012.1
20260508062156 5 31 0.0 0.0 0.00 0.00 0.00 79 1012.1
20260508062118 5 43 0.0 0.0 0.00 0.00 0.00 79 1012.1
20260508062010 5 55 0.0 0.0 0.00 0.00 0.00 79 1011.8
20260508061906 5 50 0.0 0.0 0.00 0.00 0.00 78 1011.8
20260508061800 5 25 0.0 0.0 0.00 0.00 0.00 78 1011.8
20260508061654 5 321 0.0 0.0 0.00 0.00 0.00 78 1011.8
20260508061546 5 33 0.0 3.2 0.00 0.00 0.00 79 1011.8
20260508061441 5 73 0.0 3.2 0.00 0.00 0.00 79 1011.8
20260508061334 6 73 0.0 3.2 0.00 0.00 0.00 79 1011.8
20260508061228 6 73 0.0 3.2 0.00 0.00 0.00 78 1011.4
20260508061123 6 73 0.0 6.4 0.00 0.00 0.00 78 1011.4
20260508061018 6 73 0.0 6.4 0.00 0.00 0.00 78 1011.8
20260508060911 6 73 0.0 6.4 0.00 0.00 0.00 78 1011.8
20260508060807 6 82 0.0 6.4 0.00 0.00 0.00 78 1011.4
20260508060702 6 83 0.0 6.4 0.00 0.00 0.00 78 1011.8
20260508060631 6 80 0.0 6.4 0.00 0.00 0.00 78 1011.8
20260508060552 6 99 1.6 6.4 0.00 0.00 0.00 77 1011.8
20260508060447 6 125 0.0 6.4 0.00 0.00 0.00 78 1011.8
20260508060342 6 67 0.0 6.4 0.00 0.00 0.00 77 1012.1
20260508060236 6 349 3.2 6.4 0.00 0.00 0.00 77 1012.1
20260508060129 6 319 3.2 4.8 0.00 0.00 0.00 77 1012.4
20260508060024 6 320 4.8 4.8 0.00 0.00 0.00 78 1012.1
20260508055919 6 336 3.2 3.2 0.00 0.00 0.00 78 1011.8
20260508055813 6 345 1.6 3.2 0.00 0.00 0.00 79 1011.8
20260508055707 6 27 0.0 3.2 0.00 0.00 0.00 78 1011.8
20260508055619 6 27 1.6 3.2 0.00 0.00 0.00 78 1011.8
20260508055601 6 27 1.6 1.6 0.00 0.00 0.00 78 1011.8
20260508055455 6 21 1.6 1.6 0.00 0.00 0.00 77 1011.8
20260508055349 6 73 0.0 1.6 0.00 0.00 0.00 77 1011.4
20260508055243 6 119 0.0 0.0 0.00 0.00 0.00 77 1011.8
20260508055112 6 119 0.0 0.0 0.00 0.00 0.00 77 1011.8
20260508055032 6 119 0.0 0.0 0.00 0.00 0.00 77 1011.8
20260508054927 6 119 0.0 0.0 0.00 0.00 0.00 77 1011.8
20260508054821 6 119 0.0 1.6 0.00 0.00 0.00 77 1011.8
20260508054715 6 113 0.0 1.6 0.00 0.00 0.00 77 1011.8
20260508054610 6 113 0.0 4.8 0.00 0.00 0.00 77 1011.8
20260508054504 6 113 0.0 4.8 0.00 0.00 0.00 77 1011.8
20260508054359 6 104 0.0 4.8 0.00 0.00 0.00 78 1011.8
20260508054253 6 113 0.0 4.8 0.00 0.00 0.00 79 1011.8
20260508054148 6 73 0.0 4.8 0.00 0.00 0.00 80 1011.4
20260508054100 6 62 0.0 4.8 0.00 0.00 0.00 80 1011.8
20260508054042 6 61 0.0 4.8 0.00 0.00 0.00 80 1011.8
20260508053936 6 60 0.0 4.8 0.00 0.00 0.00 80 1011.8
20260508053830 6 59 0.0 4.8 0.00 0.00 0.00 81 1011.8
20260508053725 6 58 0.0 4.8 0.00 0.00 0.00 82 1011.8
20260508053619 6 28 0.0 1.6 0.00 0.00 0.00 82 1011.8
20260508053553 6 27 0.0 1.6 0.00 0.00 0.00 82 1011.8
20260508053513 6 19 0.0 1.6 0.00 0.00 0.00 81 1011.8
20260508053407 6 17 0.0 1.6 0.00 0.00 0.00 81 1012.1
20260508053301 6 10 0.0 1.6 0.00 0.00 0.00 80 1012.1
20260508053155 6 11 0.0 1.6 0.00 0.00 0.00 80 1012.1
20260508053049 6 349 1.6 1.6 0.00 0.00 0.00 79 1012.1
20260508052943 6 337 1.6 1.6 0.00 0.00 0.00 78 1012.1
20260508052837 6 343 0.0 1.6 0.00 0.00 0.00 78 1012.1
20260508052732 6 343 0.0 0.0 0.00 0.00 0.00 78 1011.8
20260508052627 6 342 0.0 0.0 0.00 0.00 0.00 77 1012.1
20260508052533 6 326 0.0 0.0 0.00 0.00 0.00 77 1011.8
20260508052415 6 193 0.0 0.0 0.00 0.00 0.00 77 1012.1
20260508052309 7 193 0.0 0.0 0.00 0.00 0.00 76 1011.8
20260508052206 7 193 0.0 0.0 0.00 0.00 0.00 77 1012.1
20260508052100 7 196 0.0 0.0 0.00 0.00 0.00 77 1011.8
20260508052033 7 196 0.0 0.0 0.00 0.00 0.00 76 1011.8
20260508051954 7 196 0.0 0.0 0.00 0.00 0.00 76 1011.8
20260508051848 7 196 0.0 0.0 0.00 0.00 0.00 76 1011.8
20260508051742 7 196 0.0 0.0 0.00 0.00 0.00 76 1011.8
20260508051637 7 193 0.0 1.6 0.00 0.00 0.00 76 1011.8
20260508051531 7 193 0.0 1.6 0.00 0.00 0.00 76 1011.8
20260508051426 7 193 0.0 3.2 0.00 0.00 0.00 76 1011.8
20260508051320 7 190 0.0 3.2 0.00 0.00 0.00 76 1011.8
20260508051214 7 190 0.0 3.2 0.00 0.00 0.00 76 1011.8
20260508051136 6 205 0.0 1.6 0.00 0.00 0.00 75 1011.8
20260508051132 6 202 0.0 0.0 0.00 0.00 0.00 74 1012.1
20260508051128 6 278 0.0 3.2 0.00 0.00 0.00 74 1012.4
20260508051123 7 207 1.6 4.8 0.00 0.00 0.00 75 1011.8
20260508051119 7 211 3.2 4.8 0.00 0.00 0.00 74 1012.1
20260508051115 7 191 0.0 3.2 0.00 0.00 0.00 76 1011.8
20260508051105 7 191 0.0 4.8 0.00 0.00 0.00 75 1011.8
20260508051100 7 190 0.0 4.8 0.00 0.00 0.00 76 1011.8
20260508051052 7 189 0.0 4.8 0.00 0.00 0.00 76 1011.8
20260508050830 7 188 0.0 4.8 0.00 0.00 0.00 75 1012.1
20260508050821 7 200 1.6 4.8 0.00 0.00 0.00 75 1011.8
20260508050800 7 206 1.6 4.8 0.00 0.00 0.00 75 1011.8
20260508050538 7 204 0.0 4.8 0.00 0.00 0.00 75 1011.8
20260508050529 7 202 1.6 4.8 0.00 0.00 0.00 75 1012.1
20260508050306 7 194 1.6 4.8 0.00 0.00 0.00 75 1012.1
20260508050257 7 201 0.0 4.8 0.00 0.00 0.00 74 1011.8
20260508050246 7 211 3.2 4.8 0.00 0.00 0.00 74 1012.1
20260508050027 7 186 3.2 4.8 0.00 0.00 0.00 74 1011.8
20260508045807 7 228 0.0 3.2 0.00 0.00 0.00 74 1012.1
20260508045803 7 187 3.2 4.8 0.00 0.00 0.00 74 1011.8
20260508045754 7 205 3.2 4.8 0.00 0.00 0.00 74 1012.1
20260508045746 7 177 1.6 3.2 0.00 0.00 0.00 74 1012.1
20260508045524 7 204 1.6 3.2 0.00 0.00 0.00 74 1012.1
20260508045515 7 210 1.6 3.2 0.00 0.00 0.00 75 1012.1
20260508045255 7 231 1.6 3.2 0.00 0.00 0.00 74 1012.1
20260508045247 7 173 1.6 3.2 0.00 0.00 0.00 75 1012.1
20260508045026 7 213 1.6 3.2 0.00 0.00 0.00 75 1012.1
20260508045016 7 243 1.6 3.2 0.00 0.00 0.00 75 1012.1
20260508045012 7 249 1.6 3.2 0.00 0.00 0.00 74 1012.1
20260508045003 7 198 1.6 3.2 0.00 0.00 0.00 75 1012.1
20260508044744 6 212 3.2 3.2 0.00 0.00 0.00 75 1012.4
20260508044735 6 222 3.2 3.2 0.00 0.00 0.00 74 1012.1
20260508044725 6 278 0.0 3.2 0.00 0.00 0.00 74 1012.4
20260508044504 6 334 0.0 3.2 0.00 0.00 0.00 74 1012.1
20260508044455 6 261 1.6 3.2 0.00 0.00 0.00 74 1011.8
20260508044230 6 281 1.6 3.2 0.00 0.00 0.00 74 1012.1
20260508044222 6 263 1.6 3.2 0.00 0.00 0.00 74 1012.1
20260508043956 6 240 1.6 3.2 0.00 0.00 0.00 74 1012.1
20260508043952 6 282 0.0 3.2 0.00 0.00 0.00 74 1012.1
20260508043943 6 291 0.0 3.2 0.00 0.00 0.00 74 1012.1
20260508043724 6 290 0.0 3.2 0.00 0.00 0.00 74 1012.1
20260508043715 6 307 0.0 1.6 0.00 0.00 0.00 74 1012.1
20260508043707 6 282 1.6 1.6 0.00 0.00 0.00 75 1012.1
20260508043441 6 258 0.0 1.6 0.00 0.00 0.00 75 1011.8
20260508043432 6 210 0.0 0.0 0.00 0.00 0.00 75 1012.1
20260508043207 6 210 0.0 0.0 0.00 0.00 0.00 73 1012.1
20260508043159 6 210 0.0 0.0 0.00 0.00 0.00 73 1011.8
20260508043148 6 202 0.0 0.0 0.00 0.00 0.00 74 1012.1
20260508042829 6 207 0.0 0.0 0.00 0.00 0.00 74 1012.1
20260508042724 6 200 0.0 0.0 0.00 0.00 0.00 75 1011.8
20260508042618 6 195 0.0 0.0 0.00 0.00 0.00 74 1011.8
20260508042511 6 195 0.0 0.0 0.00 0.00 0.00 74 1012.1
20260508042423 6 196 0.0 0.0 0.00 0.00 0.00 73 1012.1
20260508042407 6 203 0.0 0.0 0.00 0.00 0.00 73 1012.1
20260508042259 6 221 0.0 0.0 0.00 0.00 0.00 73 1012.1
20260508042153 6 220 0.0 0.0 0.00 0.00 0.00 74 1012.1
20260508042048 6 219 0.0 0.0 0.00 0.00 0.00 73 1011.8
20260508041942 6 193 0.0 1.6 0.00 0.00 0.00 74 1012.1
20260508041915 6 193 0.0 3.2 0.00 0.00 0.00 74 1012.1
20260508041842 6 193 0.0 3.2 0.00 0.00 0.00 75 1012.1
20260508041831 6 193 0.0 3.2 0.00 0.00 0.00 74 1012.1
20260508041629 6 196 0.0 3.2 0.00 0.00 0.00 73 1011.8
20260508041519 6 197 0.0 9.7 0.00 0.00 0.00 73 1011.8
20260508041413 6 254 0.0 11.3 0.00 0.00 0.00 73 1011.8
20260508041308 7 256 0.0 11.3 0.00 0.00 0.00 73 1012.1
20260508041202 7 256 0.0 11.3 0.00 0.00 0.00 72 1012.1
20260508041119 7 258 0.0 11.3 0.00 0.00 0.00 72 1012.1
20260508040951 7 273 1.6 11.3 0.00 0.00 0.00 70 1012.1
20260508040903 7 235 1.6 11.3 0.00 0.00 0.00 67 1012.1
20260508040846 7 249 1.6 11.3 0.00 0.00 0.00 67 1012.1
20260508040740 7 207 3.2 11.3 0.00 0.00 0.00 66 1011.8
20260508040634 7 199 0.0 11.3 0.00 0.00 0.00 67 1011.8
20260508040531 7 196 3.2 11.3 0.00 0.00 0.00 66 1012.1
20260508040522 6 217 8.0 11.3 0.00 0.00 0.00 68 1012.1
20260508040357 6 273 4.8 11.3 0.00 0.00 0.00 70 1012.1
20260508040317 6 188 1.6 3.2 0.00 0.00 0.00 72 1012.1
20260508040212 6 200 1.6 3.2 0.00 0.00 0.00 73 1012.1
20260508040110 6 216 3.2 3.2 0.00 0.00 0.00 73 1011.8
20260508040000 6 218 1.6 3.2 0.00 0.00 0.00 73 1011.8
20260508035854 6 119 0.0 0.0 0.00 0.00 0.00 71 1011.8
20260508035751 7 45 0.0 0.0 0.00 0.00 0.00 70 1011.8
20260508035645 7 224 0.0 0.0 0.00 0.00 0.00 70 1012.1
20260508035539 7 218 0.0 0.0 0.00 0.00 0.00 68 1011.8
20260508035433 7 218 0.0 0.0 0.00 0.00 0.00 68 1012.1
20260508035328 6 210 0.0 0.0 0.00 0.00 0.00 68 1011.8
20260508035222 6 212 0.0 0.0 0.00 0.00 0.00 68 1011.8
20260508035117 7 212 0.0 0.0 0.00 0.00 0.00 69 1011.8
20260508035011 7 203 0.0 0.0 0.00 0.00 0.00 70 1011.8
20260508034905 7 203 0.0 0.0 0.00 0.00 0.00 70 1011.8
20260508034817 7 203 0.0 0.0 0.00 0.00 0.00 69 1011.8
20260508034801 7 205 0.0 0.0 0.00 0.00 0.00 69 1011.8
20260508034654 7 229 0.0 0.0 0.00 0.00 0.00 68 1011.8
20260508034548 7 240 0.0 0.0 0.00 0.00 0.00 69 1012.1
20260508034442 7 251 0.0 0.0 0.00 0.00 0.00 68 1011.8
20260508034311 7 298 0.0 0.0 0.00 0.00 0.00 65 1011.8
20260508034231 7 298 0.0 0.0 0.00 0.00 0.00 65 1011.8
20260508034125 7 298 0.0 0.0 0.00 0.00 0.00 66 1011.8
20260508034020 7 298 0.0 0.0 0.00 0.00 0.00 67 1011.4
20260508033914 7 299 0.0 0.0 0.00 0.00 0.00 65 1011.4
20260508033809 7 299 0.0 0.0 0.00 0.00 0.00 65 1011.4
20260508033703 7 299 0.0 0.0 0.00 0.00 0.00 64 1011.4
20260508033558 7 299 0.0 0.0 0.00 0.00 0.00 64 1011.4
20260508033452 7 299 0.0 0.0 0.00 0.00 0.00 64 1011.4
20260508033346 7 299 0.0 0.0 0.00 0.00 0.00 64 1011.4
20260508033241 7 299 0.0 0.0 0.00 0.00 0.00 64 1011.4
20260508033135 7 299 0.0 0.0 0.00 0.00 0.00 64 1011.4
20260508033030 7 299 0.0 0.0 0.00 0.00 0.00 63 1011.4
20260508032924 7 299 0.0 0.0 0.00 0.00 0.00 64 1011.4
20260508032818 7 299 0.0 0.0 0.00 0.00 0.00 63 1011.4
20260508032752 7 299 0.0 0.0 0.00 0.00 0.00 63 1011.4
20260508032713 7 299 0.0 0.0 0.00 0.00 0.00 63 1011.8
20260508032607 7 299 0.0 0.0 0.00 0.00 0.00 63 1011.4
20260508032501 7 299 0.0 0.0 0.00 0.00 0.00 63 1011.4
20260508032355 7 299 0.0 0.0 0.00 0.00 0.00 63 1011.8
20260508032250 7 299 0.0 0.0 0.00 0.00 0.00 63 1011.8
20260508032144 7 299 0.0 0.0 0.00 0.00 0.00 63 1011.8
20260508032038 7 299 0.0 0.0 0.00 0.00 0.00 63 1011.8
20260508031932 7 299 0.0 0.0 0.00 0.00 0.00 63 1011.8
20260508031827 7 299 0.0 0.0 0.00 0.00 0.00 63 1011.8
20260508031722 7 299 0.0 0.0 0.00 0.00 0.00 63 1011.4
20260508031616 7 299 0.0 0.0 0.00 0.00 0.00 64 1011.8
20260508031510 7 299 0.0 0.0 0.00 0.00 0.00 64 1011.8
20260508031404 7 299 0.0 0.0 0.00 0.00 0.00 64 1011.8
20260508031233 7 299 0.0 0.0 0.00 0.00 0.00 65 1011.8
20260508031153 7 299 0.0 0.0 0.00 0.00 0.00 64 1011.8
20260508031048 7 299 0.0 0.0 0.00 0.00 0.00 64 1011.8
20260508030942 7 299 0.0 0.0 0.00 0.00 0.00 64 1011.8
20260508030836 7 299 0.0 0.0 0.00 0.00 0.00 64 1011.8
20260508030731 7 299 0.0 0.0 0.00 0.00 0.00 64 1012.1
20260508030637 7 299 0.0 0.0 0.00 0.00 0.00 64 1012.1
20260508030519 7 299 0.0 0.0 0.00 0.00 0.00 64 1012.1
20260508030437 9 336 4.8 6.4 0.00 0.00 0.00 54 1011.8
20260508030433 9 226 0.0 6.4 0.00 0.00 0.00 56 1011.8
20260508030428 9 302 0.0 6.4 0.00 0.00 0.00 57 1011.8
20260508030424 7 299 0.0 0.0 0.00 0.00 0.00 63 1012.1
20260508030416 7 299 0.0 0.0 0.00 0.00 0.00 62 1012.1
20260508030352 7 299 0.0 0.0 0.00 0.00 0.00 62 1012.1
20260508030348 7 299 0.0 0.0 0.00 0.00 0.00 62 1012.1
20260508030128 10 310 1.6 14.5 0.00 0.00 0.00 52 1011.4
20260508030123 7 299 0.0 0.0 0.00 0.00 0.00 61 1011.8
20260508030115 7 299 0.0 0.0 0.00 0.00 0.00 61 1011.8
20260508025825 7 299 0.0 0.0 0.00 0.00 0.00 61 1012.1
20260508025821 7 299 0.0 0.0 0.00 0.00 0.00 60 1012.1
20260508025557 7 299 0.0 0.0 0.00 0.00 0.00 60 1012.1
20260508025549 7 299 0.0 0.0 0.00 0.00 0.00 60 1011.8
20260508025326 7 299 0.0 0.0 0.00 0.00 0.00 61 1012.1
20260508025311 7 299 0.0 0.0 0.00 0.00 0.00 60 1011.8
20260508025306 8 299 0.0 0.0 0.00 0.00 0.00 60 1011.8
20260508025042 8 298 0.0 6.4 0.00 0.00 0.00 57 1011.8
20260508025038 8 298 0.0 0.0 0.00 0.00 0.00 61 1011.8
20260508025029 8 299 0.0 0.0 0.00 0.00 0.00 60 1011.8
20260508024800 8 299 0.0 0.0 0.00 0.00 0.00 60 1012.1
20260508024756 8 299 0.0 0.0 0.00 0.00 0.00 60 1012.1
20260508024534 8 299 0.0 0.0 0.00 0.00 0.00 60 1012.1
20260508024526 8 299 0.0 0.0 0.00 0.00 0.00 60 1012.1
20260508024517 8 299 0.0 0.0 0.00 0.00 0.00 59 1011.8
20260508024253 8 299 0.0 0.0 0.00 0.00 0.00 59 1012.1
20260508024238 8 299 0.0 0.0 0.00 0.00 0.00 59 1012.1
20260508024017 8 305 0.0 0.0 0.00 0.00 0.00 59 1012.1
20260508024008 8 304 0.0 0.0 0.00 0.00 0.00 59 1011.8
20260508024000 8 304 0.0 0.0 0.00 0.00 0.00 59 1012.1
20260508023739 8 304 0.0 0.0 0.00 0.00 0.00 59 1011.8
20260508023734 8 304 0.0 1.6 0.00 0.00 0.00 59 1011.8
20260508023726 8 304 0.0 1.6 0.00 0.00 0.00 59 1011.8
20260508023506 8 305 0.0 1.6 0.00 0.00 0.00 59 1011.8
20260508023458 8 304 0.0 1.6 0.00 0.00 0.00 58 1011.8
20260508023237 8 302 0.0 1.6 0.00 0.00 0.00 58 1011.8
20260508023227 8 354 0.0 1.6 0.00 0.00 0.00 59 1011.8
20260508023222 8 305 0.0 1.6 0.00 0.00 0.00 59 1011.8
20260508023214 8 299 0.0 4.8 0.00 0.00 0.00 58 1011.8
20260508022953 9 318 1.6 1.6 0.00 0.00 0.00 54 1011.8
20260508022949 8 316 0.0 4.8 0.00 0.00 0.00 57 1011.8
20260508022940 8 315 0.0 4.8 0.00 0.00 0.00 58 1011.8
20260508022709 8 328 1.6 4.8 0.00 0.00 0.00 58 1011.8
20260508022705 8 307 0.0 4.8 0.00 0.00 0.00 58 1011.8
20260508022657 8 280 0.0 4.8 0.00 0.00 0.00 57 1011.8
20260508022436 8 310 0.0 4.8 0.00 0.00 0.00 57 1011.4
20260508022428 8 312 0.0 4.8 0.00 0.00 0.00 57 1011.8
20260508022202 8 331 0.0 4.8 0.00 0.00 0.00 57 1011.8
20260508022158 8 317 0.0 4.8 0.00 0.00 0.00 57 1011.8
20260508022149 8 322 1.6 3.2 0.00 0.00 0.00 57 1011.8
20260508021929 8 350 1.6 6.4 0.00 0.00 0.00 57 1011.8
20260508021921 8 278 0.0 6.4 0.00 0.00 0.00 56 1011.8
20260508021912 8 281 0.0 6.4 0.00 0.00 0.00 57 1011.8
20260508021651 8 299 0.0 6.4 0.00 0.00 0.00 57 1011.8
20260508021642 8 222 0.0 6.4 0.00 0.00 0.00 56 1011.8
20260508021417 8 273 0.0 6.4 0.00 0.00 0.00 57 1011.8
20260508021408 9 255 0.0 6.4 0.00 0.00 0.00 57 1011.8
20260508021148 9 332 3.2 6.4 0.00 0.00 0.00 57 1012.1
20260508021137 9 315 3.2 6.4 0.00 0.00 0.00 57 1012.1
20260508021133 9 238 1.6 6.4 0.00 0.00 0.00 56 1011.8
20260508021125 9 306 1.6 6.4 0.00 0.00 0.00 57 1011.8
20260508020901 9 351 1.6 6.4 0.00 0.00 0.00 56 1011.8
20260508020853 9 16 1.6 6.4 0.00 0.00 0.00 56 1011.8
20260508020631 9 227 0.0 6.4 0.00 0.00 0.00 56 1011.8
20260508020622 9 314 0.0 6.4 0.00 0.00 0.00 56 1012.1
20260508020403 9 314 0.0 6.4 0.00 0.00 0.00 56 1011.8
20260508020354 9 317 0.0 6.4 0.00 0.00 0.00 56 1012.1
20260508020346 9 307 0.0 6.4 0.00 0.00 0.00 58 1011.8
20260508020124 9 219 0.0 6.4 0.00 0.00 0.00 56 1012.1
20260508020116 9 193 0.0 6.4 0.00 0.00 0.00 55 1011.8
20260508015855 9 161 0.0 6.4 0.00 0.00 0.00 56 1012.1
20260508015847 9 322 3.2 6.4 0.00 0.00 0.00 55 1012.1
20260508015838 9 326 4.8 6.4 0.00 0.00 0.00 54 1011.8
20260508015617 9 328 3.2 6.4 0.00 0.00 0.00 53 1012.1
20260508015608 9 330 6.4 6.4 0.00 0.00 0.00 53 1012.1
20260508015345 9 338 3.2 4.8 0.00 0.00 0.00 54 1011.8
20260508015336 9 315 1.6 1.6 0.00 0.00 0.00 54 1011.8
20260508015115 9 336 1.6 1.6 0.00 0.00 0.00 54 1011.8
20260508015107 9 327 1.6 1.6 0.00 0.00 0.00 54 1011.8
20260508015058 9 330 0.0 1.6 0.00 0.00 0.00 54 1011.8
20260508014826 9 330 1.6 4.8 0.00 0.00 0.00 53 1011.8
20260508014817 9 313 0.0 9.7 0.00 0.00 0.00 53 1011.8
20260508014552 9 314 0.0 9.7 0.00 0.00 0.00 53 1011.8
20260508014547 9 304 0.0 14.5 0.00 0.00 0.00 53 1012.1
20260508014538 9 336 1.6 14.5 0.00 0.00 0.00 53 1011.8
20260508014319 9 340 0.0 14.5 0.00 0.00 0.00 53 1011.8
20260508014310 10 323 0.0 14.5 0.00 0.00 0.00 52 1011.4
20260508014302 10 313 1.6 14.5 0.00 0.00 0.00 52 1011.4
20260508013955 10 271 0.0 14.5 0.00 0.00 0.00 52 1011.8
20260508013849 10 289 0.0 14.5 0.00 0.00 0.00 51 1011.8
20260508013743 10 283 4.8 14.5 0.00 0.00 0.00 51 1011.8
20260508013637 9 281 6.4 14.5 0.00 0.00 0.00 52 1011.8
20260508013532 9 218 9.7 14.5 0.00 0.00 0.00 53 1011.8
20260508013426 9 258 0.0 0.0 0.00 0.00 0.00 52 1011.8
20260508013320 9 224 0.0 0.0 0.00 0.00 0.00 52 1011.4
20260508013215 9 223 0.0 0.0 0.00 0.00 0.00 52 1011.8
20260508013108 9 223 0.0 0.0 0.00 0.00 0.00 52 1011.8
20260508013031 9 224 0.0 0.0 0.00 0.00 0.00 51 1011.4
20260508013003 9 224 0.0 0.0 0.00 0.00 0.00 51 1011.4
20260508012857 9 209 0.0 0.0 0.00 0.00 0.00 51 1011.4
20260508012750 9 227 0.0 0.0 0.00 0.00 0.00 52 1011.4
20260508012646 9 277 0.0 0.0 0.00 0.00 0.00 52 1011.8
20260508012524 9 238 0.0 0.0 0.00 0.00 0.00 52 1011.4
20260508012434 9 205 0.0 0.0 0.00 0.00 0.00 53 1011.4
20260508012327 9 224 0.0 0.0 0.00 0.00 0.00 53 1011.8
20260508012222 9 271 0.0 0.0 0.00 0.00 0.00 52 1011.8
20260508012116 9 273 0.0 0.0 0.00 0.00 0.00 52 1011.4